Time,TemperatureF,DewpointF,PressureIn,WindDirection,WindDirectionDegrees,WindSpeedMPH,WindSpeedGustMPH,Humidity,HourlyPrecipIn,Conditions,Clouds,dailyrainin,SoftwareType,DateUTC
2013-12-29 00:00:00,41.5,24.3,30.25,WSW,248,4.0,6.0,50,0.00,,,0.00,meteohub,2013-12-29 05:00:00,
2013-12-29 00:01:00,41.7,24.4,30.25,WSW,248,5.0,6.0,50,0.00,,,0.00,meteohub,2013-12-29 05:01:00,
2013-12-29 00:02:00,41.7,23.9,30.25,West,270,4.0,6.0,49,0.00,,,0.00,meteohub,2013-12-29 05:02:00,
2013-12-29 00:03:00,41.7,24.4,30.25,WSW,248,3.0,6.0,50,0.00,,,0.00,meteohub,2013-12-29 05:03:00,
2013-12-29 00:06:00,41.9,24.1,30.24,WSW,248,8.0,8.0,49,0.00,,,0.00,meteohub,2013-12-29 05:06:00,
2013-12-29 00:07:00,41.9,24.1,30.24,WSW,248,8.0,8.0,49,0.00,,,0.00,meteohub,2013-12-29 05:07:00,
2013-12-29 00:08:00,41.9,24.1,30.25,WSW,248,3.0,6.0,49,0.00,,,0.00,meteohub,2013-12-29 05:08:00,
2013-12-29 00:12:00,41.9,23.7,30.24,South,180,4.0,5.0,48,0.00,,,0.00,meteohub,2013-12-29 05:12:00,
2013-12-29 00:13:00,42.1,23.7,30.24,WSW,248,8.0,8.0,48,0.00,,,0.00,meteohub,2013-12-29 05:13:00,
2013-12-29 00:14:00,42.1,23.7,30.24,WSW,248,4.0,5.0,48,0.00,,,0.00,meteohub,2013-12-29 05:14:00,
2013-12-29 00:17:00,42.1,24.3,30.24,South,180,2.0,8.0,49,0.00,,,0.00,meteohub,2013-12-29 05:17:00,
2013-12-29 00:19:00,42.1,23.7,30.24,WSW,248,3.0,8.0,48,0.00,,,0.00,meteohub,2013-12-29 05:19:00,
2013-12-29 00:20:00,42.1,23.7,30.24,South,180,8.0,8.0,48,0.00,,,0.00,meteohub,2013-12-29 05:20:00,
2013-12-29 00:23:00,42.1,23.7,30.23,WSW,248,3.0,8.0,48,0.00,,,0.00,meteohub,2013-12-29 05:23:00,
2013-12-29 00:24:00,42.1,23.7,30.23,WSW,248,3.0,8.0,48,0.00,,,0.00,meteohub,2013-12-29 05:24:00,
2013-12-29 00:25:00,42.1,23.7,30.23,WSW,248,4.0,8.0,48,0.00,,,0.00,meteohub,2013-12-29 05:25:00,
2013-12-29 00:27:00,42.3,23.5,30.23,South,180,5.0,9.0,47,0.00,,,0.00,meteohub,2013-12-29 05:27:00,
2013-12-29 00:30:00,42.3,23.5,30.23,WSW,248,10.0,10.0,47,0.00,,,0.00,meteohub,2013-12-29 05:30:00,
2013-12-29 00:32:00,42.4,23.7,30.23,WSW,248,4.0,9.0,47,0.00,,,0.00,meteohub,2013-12-29 05:32:00,
2013-12-29 00:35:00,42.4,23.2,30.23,South,180,7.0,10.0,46,0.00,,,0.00,meteohub,2013-12-29 05:35:00,
2013-12-29 00:36:00,42.4,23.2,30.23,South,180,7.0,10.0,46,0.00,,,0.00,meteohub,2013-12-29 05:36:00,
2013-12-29 00:37:00,42.4,23.2,30.23,South,180,7.0,10.0,46,0.00,,,0.00,meteohub,2013-12-29 05:37:00,
2013-12-29 00:38:00,42.4,23.2,30.23,South,180,7.0,10.0,46,0.00,,,0.00,meteohub,2013-12-29 05:38:00,
2013-12-29 00:41:00,42.4,23.7,30.22,WSW,248,4.0,10.0,47,0.00,,,0.00,meteohub,2013-12-29 05:41:00,
2013-12-29 00:42:00,42.4,23.7,30.22,SSW,203,6.0,10.0,47,0.00,,,0.00,meteohub,2013-12-29 05:42:00,
2013-12-29 00:45:00,42.4,23.2,30.22,West,270,4.0,8.0,46,0.00,,,0.00,meteohub,2013-12-29 05:45:00,
2013-12-29 00:46:00,42.6,23.4,30.22,South,180,5.0,8.0,46,0.00,,,0.00,meteohub,2013-12-29 05:46:00,
2013-12-29 00:47:00,42.6,23.4,30.22,WSW,248,4.0,8.0,46,0.00,,,0.00,meteohub,2013-12-29 05:47:00,
2013-12-29 00:48:00,42.6,23.4,30.22,WSW,248,4.0,8.0,46,0.00,,,0.00,meteohub,2013-12-29 05:48:00,
2013-12-29 00:51:00,42.6,22.8,30.21,South,180,8.0,8.0,45,0.00,,,0.00,meteohub,2013-12-29 05:51:00,
2013-12-29 00:52:00,42.6,23.4,30.22,West,270,4.0,8.0,46,0.00,,,0.00,meteohub,2013-12-29 05:52:00,
2013-12-29 00:53:00,42.6,23.4,30.21,WSW,248,5.0,8.0,46,0.00,,,0.00,meteohub,2013-12-29 05:53:00,
2013-12-29 00:54:00,42.8,23.4,30.21,WSW,248,7.0,8.0,46,0.00,,,0.00,meteohub,2013-12-29 05:54:00,
2013-12-29 00:55:00,42.8,23.0,30.21,WSW,248,8.0,8.0,45,0.00,,,0.00,meteohub,2013-12-29 05:55:00,
2013-12-29 00:57:00,43.0,23.5,30.21,West,270,4.0,8.0,46,0.00,,,0.00,meteohub,2013-12-29 05:57:00,
2013-12-29 00:58:00,43.0,23.2,30.21,South,180,3.0,8.0,45,0.00,,,0.00,meteohub,2013-12-29 05:58:00,
2013-12-29 00:59:00,43.0,23.2,30.21,South,180,7.0,8.0,45,0.00,,,0.00,meteohub,2013-12-29 05:59:00,
2013-12-29 01:00:00,43.0,23.2,30.20,South,180,7.0,9.0,45,0.00,,,0.00,meteohub,2013-12-29 06:00:00,
2013-12-29 01:03:00,43.0,23.2,30.21,South,180,7.0,9.0,45,0.00,,,0.00,meteohub,2013-12-29 06:03:00,
2013-12-29 01:04:00,43.0,23.2,30.21,South,180,7.0,9.0,45,0.00,,,0.00,meteohub,2013-12-29 06:04:00,
2013-12-29 01:05:00,43.0,23.2,30.21,South,180,7.0,9.0,45,0.00,,,0.00,meteohub,2013-12-29 06:05:00,
2013-12-29 01:07:00,43.0,23.2,30.21,West,270,3.0,9.0,45,0.00,,,0.00,meteohub,2013-12-29 06:07:00,
2013-12-29 01:09:00,43.0,23.2,30.21,WSW,248,7.0,9.0,45,0.00,,,0.00,meteohub,2013-12-29 06:09:00,
2013-12-29 01:10:00,43.0,23.2,30.20,WSW,248,8.0,9.0,45,0.00,,,0.00,meteohub,2013-12-29 06:10:00,
2013-12-29 01:11:00,43.0,23.5,30.20,WSW,248,5.0,9.0,46,0.00,,,0.00,meteohub,2013-12-29 06:11:00,
2013-12-29 01:12:00,43.0,23.2,30.20,WSW,248,3.0,9.0,45,0.00,,,0.00,meteohub,2013-12-29 06:12:00,
2013-12-29 01:15:00,43.0,23.5,30.20,South,180,5.0,9.0,46,0.00,,,0.00,meteohub,2013-12-29 06:15:00,
2013-12-29 01:16:00,43.0,23.2,30.20,NW,315,4.0,8.0,45,0.00,,,0.00,meteohub,2013-12-29 06:16:00,
2013-12-29 01:17:00,43.0,23.2,30.20,NW,315,4.0,8.0,45,0.00,,,0.00,meteohub,2013-12-29 06:17:00,
2013-12-29 01:18:00,43.0,23.2,30.20,SE,135,4.0,8.0,45,0.00,,,0.00,meteohub,2013-12-29 06:18:00,
2013-12-29 01:20:00,43.0,23.2,30.20,South,180,6.0,8.0,45,0.00,,,0.00,meteohub,2013-12-29 06:20:00,
2013-12-29 01:21:00,43.0,23.2,30.20,WSW,248,5.0,8.0,45,0.00,,,0.00,meteohub,2013-12-29 06:21:00,
2013-12-29 01:23:00,43.2,23.2,30.20,South,180,5.0,8.0,45,0.00,,,0.00,meteohub,2013-12-29 06:23:00,
2013-12-29 01:24:00,43.0,23.5,30.20,South,180,3.0,8.0,46,0.00,,,0.00,meteohub,2013-12-29 06:24:00,
2013-12-29 01:26:00,43.0,23.2,30.19,WSW,248,3.0,8.0,45,0.00,,,0.00,meteohub,2013-12-29 06:26:00,
2013-12-29 01:27:00,43.0,23.2,30.19,WSW,248,3.0,8.0,45,0.00,,,0.00,meteohub,2013-12-29 06:27:00,
2013-12-29 01:29:00,43.0,23.5,30.19,WSW,248,3.0,8.0,46,0.00,,,0.00,meteohub,2013-12-29 06:29:00,
2013-12-29 01:30:00,42.8,23.0,30.20,South,180,5.0,8.0,45,0.00,,,0.00,meteohub,2013-12-29 06:30:00,
2013-12-29 01:32:00,42.8,23.4,30.20,South,180,4.0,7.0,46,0.00,,,0.00,meteohub,2013-12-29 06:32:00,
2013-12-29 01:33:00,42.8,23.4,30.20,WSW,248,4.0,7.0,46,0.00,,,0.00,meteohub,2013-12-29 06:33:00,
2013-12-29 01:34:00,42.8,23.4,30.19,South,180,7.0,7.0,46,0.00,,,0.00,meteohub,2013-12-29 06:34:00,
2013-12-29 01:36:00,42.8,23.4,30.19,WSW,248,4.0,6.0,46,0.00,,,0.00,meteohub,2013-12-29 06:36:00,
2013-12-29 01:38:00,42.6,23.7,30.20,WSW,248,3.0,6.0,47,0.00,,,0.00,meteohub,2013-12-29 06:38:00,
2013-12-29 01:39:00,42.6,23.4,30.20,South,180,4.0,6.0,46,0.00,,,0.00,meteohub,2013-12-29 06:39:00,
2013-12-29 01:40:00,42.6,23.4,30.20,WSW,248,5.0,7.0,46,0.00,,,0.00,meteohub,2013-12-29 06:40:00,
2013-12-29 01:41:00,42.6,23.4,30.20,WSW,248,6.0,7.0,46,0.00,,,0.00,meteohub,2013-12-29 06:41:00,
2013-12-29 01:42:00,42.4,23.2,30.20,WSW,248,7.0,7.0,46,0.00,,,0.00,meteohub,2013-12-29 06:42:00,
2013-12-29 01:43:00,42.4,23.2,30.20,WSW,248,7.0,7.0,46,0.00,,,0.00,meteohub,2013-12-29 06:43:00,
2013-12-29 01:45:00,42.4,23.7,30.20,South,180,4.0,8.0,47,0.00,,,0.00,meteohub,2013-12-29 06:45:00,
2013-12-29 01:46:00,42.4,23.7,30.20,South,180,4.0,8.0,47,0.00,,,0.00,meteohub,2013-12-29 06:46:00,
2013-12-29 01:48:00,42.4,23.7,30.20,South,180,3.0,8.0,47,0.00,,,0.00,meteohub,2013-12-29 06:48:00,
2013-12-29 01:49:00,42.4,23.7,30.20,WSW,248,7.0,8.0,47,0.00,,,0.00,meteohub,2013-12-29 06:49:00,
2013-12-29 01:51:00,42.4,23.7,30.20,West,270,3.0,8.0,47,0.00,,,0.00,meteohub,2013-12-29 06:51:00,
2013-12-29 01:52:00,42.4,23.7,30.20,WSW,248,5.0,8.0,47,0.00,,,0.00,meteohub,2013-12-29 06:52:00,
2013-12-29 01:54:00,42.4,23.7,30.20,West,270,4.0,8.0,47,0.00,,,0.00,meteohub,2013-12-29 06:54:00,
2013-12-29 01:55:00,42.4,23.7,30.20,WSW,248,3.0,8.0,47,0.00,,,0.00,meteohub,2013-12-29 06:55:00,
2013-12-29 01:56:00,42.4,23.7,30.20,NW,315,4.0,8.0,47,0.00,,,0.00,meteohub,2013-12-29 06:56:00,
2013-12-29 01:58:00,42.4,23.2,30.20,South,180,6.0,8.0,46,0.00,,,0.00,meteohub,2013-12-29 06:58:00,
2013-12-29 02:00:00,42.6,23.7,30.21,WSW,248,3.0,8.0,47,0.00,,,0.00,meteohub,2013-12-29 07:00:00,
2013-12-29 02:01:00,42.6,23.7,30.21,WSW,248,3.0,7.0,47,0.00,,,0.00,meteohub,2013-12-29 07:01:00,
2013-12-29 02:02:00,42.6,23.7,30.21,WSW,248,3.0,7.0,47,0.00,,,0.00,meteohub,2013-12-29 07:02:00,
2013-12-29 02:04:00,42.6,23.7,30.21,WSW,248,3.0,7.0,47,0.00,,,0.00,meteohub,2013-12-29 07:04:00,
2013-12-29 02:05:00,42.6,23.7,30.21,WSW,248,3.0,7.0,47,0.00,,,0.00,meteohub,2013-12-29 07:05:00,
2013-12-29 02:06:00,42.6,23.7,30.21,WSW,248,3.0,6.0,47,0.00,,,0.00,meteohub,2013-12-29 07:06:00,
2013-12-29 02:07:00,42.6,23.7,30.21,WSW,248,3.0,6.0,47,0.00,,,0.00,meteohub,2013-12-29 07:07:00,
2013-12-29 02:08:00,42.6,23.7,30.21,WSW,248,3.0,6.0,47,0.00,,,0.00,meteohub,2013-12-29 07:08:00,
2013-12-29 02:09:00,42.6,23.7,30.21,WSW,248,3.0,6.0,47,0.00,,,0.00,meteohub,2013-12-29 07:09:00,
2013-12-29 02:10:00,42.6,23.7,30.21,South,180,7.0,7.0,47,0.00,,,0.00,meteohub,2013-12-29 07:10:00,
2013-12-29 02:12:00,42.6,23.7,30.22,WSW,248,8.0,8.0,47,0.00,,,0.00,meteohub,2013-12-29 07:12:00,
2013-12-29 02:13:00,42.4,23.7,30.21,WSW,248,4.0,6.0,47,0.00,,,0.00,meteohub,2013-12-29 07:13:00,
2013-12-29 02:15:00,42.4,23.7,30.21,WSW,248,4.0,8.0,47,0.00,,,0.00,meteohub,2013-12-29 07:15:00,
2013-12-29 02:17:00,42.4,23.7,30.21,West,270,3.0,8.0,47,0.00,,,0.00,meteohub,2013-12-29 07:17:00,
2013-12-29 02:18:00,42.4,23.7,30.21,West,270,4.0,8.0,47,0.00,,,0.00,meteohub,2013-12-29 07:18:00,
2013-12-29 02:20:00,42.3,23.5,30.21,South,180,4.0,8.0,47,0.00,,,0.00,meteohub,2013-12-29 07:20:00,
2013-12-29 02:21:00,42.3,23.5,30.22,WSW,248,4.0,8.0,47,0.00,,,0.00,meteohub,2013-12-29 07:21:00,
2013-12-29 02:22:00,42.3,23.9,30.22,South,180,4.0,8.0,48,0.00,,,0.00,meteohub,2013-12-29 07:22:00,
2013-12-29 02:24:00,42.3,23.9,30.21,West,270,2.0,8.0,48,0.00,,,0.00,meteohub,2013-12-29 07:24:00,
2013-12-29 02:25:00,42.1,23.7,30.22,WSW,248,4.0,8.0,48,0.00,,,0.00,meteohub,2013-12-29 07:25:00,
2013-12-29 02:26:00,42.1,23.7,30.21,WSW,248,3.0,8.0,48,0.00,,,0.00,meteohub,2013-12-29 07:26:00,
2013-12-29 02:27:00,42.1,23.7,30.22,WSW,248,2.0,8.0,48,0.00,,,0.00,meteohub,2013-12-29 07:27:00,
2013-12-29 02:29:00,42.1,23.7,30.22,South,180,4.0,8.0,48,0.00,,,0.00,meteohub,2013-12-29 07:29:00,
2013-12-29 02:32:00,42.1,23.7,30.21,SE,135,7.0,7.0,48,0.00,,,0.00,meteohub,2013-12-29 07:32:00,
2013-12-29 02:33:00,42.1,23.7,30.22,South,180,4.0,7.0,48,0.00,,,0.00,meteohub,2013-12-29 07:33:00,
2013-12-29 02:35:00,42.1,23.7,30.21,South,180,3.0,7.0,48,0.00,,,0.00,meteohub,2013-12-29 07:35:00,
2013-12-29 02:36:00,42.1,23.7,30.20,WSW,248,4.0,7.0,48,0.00,,,0.00,meteohub,2013-12-29 07:36:00,
2013-12-29 02:37:00,42.1,23.7,30.21,SE,135,4.0,7.0,48,0.00,,,0.00,meteohub,2013-12-29 07:37:00,
2013-12-29 02:39:00,42.1,23.7,30.20,WSW,248,4.0,7.0,48,0.00,,,0.00,meteohub,2013-12-29 07:39:00,
2013-12-29 02:40:00,42.1,23.7,30.20,WSW,248,7.0,7.0,48,0.00,,,0.00,meteohub,2013-12-29 07:40:00,
2013-12-29 02:41:00,42.3,23.5,30.20,NW,315,7.0,7.0,47,0.00,,,0.00,meteohub,2013-12-29 07:41:00,
2013-12-29 02:42:00,42.3,23.5,30.21,WSW,248,2.0,7.0,47,0.00,,,0.00,meteohub,2013-12-29 07:42:00,
2013-12-29 02:43:00,42.3,23.5,30.20,NW,315,4.0,7.0,47,0.00,,,0.00,meteohub,2013-12-29 07:43:00,
2013-12-29 02:44:00,42.3,23.9,30.20,NW,315,3.0,7.0,48,0.00,,,0.00,meteohub,2013-12-29 07:44:00,
2013-12-29 02:45:00,42.3,23.5,30.21,NW,315,3.0,7.0,47,0.00,,,0.00,meteohub,2013-12-29 07:45:00,
2013-12-29 02:48:00,42.4,23.7,30.20,WSW,248,4.0,7.0,47,0.00,,,0.00,meteohub,2013-12-29 07:48:00,
2013-12-29 02:50:00,42.4,23.7,30.21,WSW,248,8.0,8.0,47,0.00,,,0.00,meteohub,2013-12-29 07:50:00,
2013-12-29 02:51:00,42.4,23.7,30.21,South,180,6.0,7.0,47,0.00,,,0.00,meteohub,2013-12-29 07:51:00,
2013-12-29 02:54:00,42.4,23.7,30.21,WSW,248,4.0,7.0,47,0.00,,,0.00,meteohub,2013-12-29 07:54:00,
2013-12-29 02:55:00,42.4,24.1,30.20,South,180,5.0,7.0,48,0.00,,,0.00,meteohub,2013-12-29 07:55:00,
2013-12-29 02:56:00,42.4,23.7,30.21,WSW,248,4.0,8.0,47,0.00,,,0.00,meteohub,2013-12-29 07:56:00,
2013-12-29 02:58:00,42.3,23.9,30.21,South,180,5.0,8.0,48,0.00,,,0.00,meteohub,2013-12-29 07:58:00,
2013-12-29 03:00:00,42.3,23.9,30.21,WSW,248,4.0,8.0,48,0.00,,,0.00,meteohub,2013-12-29 08:00:00,
2013-12-29 03:01:00,42.3,23.9,30.21,WSW,248,4.0,8.0,48,0.00,,,0.00,meteohub,2013-12-29 08:01:00,
2013-12-29 03:03:00,42.3,23.9,30.20,WSW,248,4.0,8.0,48,0.00,,,0.00,meteohub,2013-12-29 08:03:00,
2013-12-29 03:05:00,42.3,23.9,30.20,WSW,248,4.0,8.0,48,0.00,,,0.00,meteohub,2013-12-29 08:05:00,
2013-12-29 03:06:00,42.3,23.9,30.20,WSW,248,4.0,8.0,48,0.00,,,0.00,meteohub,2013-12-29 08:06:00,
2013-12-29 03:08:00,42.1,24.3,30.20,South,180,4.0,8.0,49,0.00,,,0.00,meteohub,2013-12-29 08:08:00,
2013-12-29 03:10:00,41.9,24.1,30.20,South,180,3.0,8.0,49,0.00,,,0.00,meteohub,2013-12-29 08:10:00,
2013-12-29 03:11:00,41.9,24.1,30.20,South,180,3.0,8.0,49,0.00,,,0.00,meteohub,2013-12-29 08:11:00,
2013-12-29 03:12:00,41.7,23.9,30.20,South,180,5.0,8.0,49,0.00,,,0.00,meteohub,2013-12-29 08:12:00,
2013-12-29 03:13:00,41.7,23.9,30.20,SE,135,3.0,8.0,49,0.00,,,0.00,meteohub,2013-12-29 08:13:00,
2013-12-29 03:16:00,41.7,23.9,30.20,WSW,248,5.0,5.0,49,0.00,,,0.00,meteohub,2013-12-29 08:16:00,
2013-12-29 03:17:00,41.7,23.9,30.20,WSW,248,4.0,5.0,49,0.00,,,0.00,meteohub,2013-12-29 08:17:00,
2013-12-29 03:19:00,41.5,24.3,30.20,WSW,248,3.0,5.0,50,0.00,,,0.00,meteohub,2013-12-29 08:19:00,
2013-12-29 03:21:00,41.5,24.3,30.20,WSW,248,4.0,5.0,50,0.00,,,0.00,meteohub,2013-12-29 08:21:00,
2013-12-29 03:22:00,41.5,24.3,30.20,WSW,248,3.0,5.0,50,0.00,,,0.00,meteohub,2013-12-29 08:22:00,
2013-12-29 03:23:00,41.5,24.3,30.20,WSW,248,6.0,6.0,50,0.00,,,0.00,meteohub,2013-12-29 08:23:00,
2013-12-29 03:27:00,41.5,24.3,30.20,South,180,5.0,5.0,50,0.00,,,0.00,meteohub,2013-12-29 08:27:00,
2013-12-29 03:28:00,41.4,24.6,30.20,West,270,1.0,5.0,51,0.00,,,0.00,meteohub,2013-12-29 08:28:00,
2013-12-29 03:29:00,41.4,24.6,30.20,West,270,1.0,5.0,51,0.00,,,0.00,meteohub,2013-12-29 08:29:00,
2013-12-29 03:32:00,41.4,24.1,30.19,South,180,3.0,6.0,50,0.00,,,0.00,meteohub,2013-12-29 08:32:00,
2013-12-29 03:34:00,41.2,23.9,30.19,South,180,5.0,6.0,50,0.00,,,0.00,meteohub,2013-12-29 08:34:00,
2013-12-29 03:35:00,41.4,24.1,30.19,South,180,6.0,6.0,50,0.00,,,0.00,meteohub,2013-12-29 08:35:00,
2013-12-29 03:36:00,41.4,24.1,30.19,South,180,2.0,6.0,50,0.00,,,0.00,meteohub,2013-12-29 08:36:00,
2013-12-29 03:37:00,41.2,23.9,30.20,South,180,3.0,6.0,50,0.00,,,0.00,meteohub,2013-12-29 08:37:00,
2013-12-29 03:39:00,41.4,24.1,30.19,WSW,248,4.0,6.0,50,0.00,,,0.00,meteohub,2013-12-29 08:39:00,
2013-12-29 03:40:00,41.4,24.1,30.19,South,180,3.0,6.0,50,0.00,,,0.00,meteohub,2013-12-29 08:40:00,
2013-12-29 03:41:00,41.4,24.1,30.19,SE,135,4.0,6.0,50,0.00,,,0.00,meteohub,2013-12-29 08:41:00,
2013-12-29 03:43:00,41.4,24.1,30.19,South,180,4.0,6.0,50,0.00,,,0.00,meteohub,2013-12-29 08:43:00,
2013-12-29 03:46:00,41.4,24.1,30.19,South,180,4.0,6.0,50,0.00,,,0.00,meteohub,2013-12-29 08:46:00,
2013-12-29 03:47:00,41.4,24.1,30.19,West,270,2.0,6.0,50,0.00,,,0.00,meteohub,2013-12-29 08:47:00,
2013-12-29 03:48:00,41.4,24.1,30.18,South,180,4.0,6.0,50,0.00,,,0.00,meteohub,2013-12-29 08:48:00,
2013-12-29 03:51:00,41.4,24.1,30.19,South,180,2.0,6.0,50,0.00,,,0.00,meteohub,2013-12-29 08:51:00,
2013-12-29 03:52:00,41.4,24.1,30.19,South,180,6.0,6.0,50,0.00,,,0.00,meteohub,2013-12-29 08:52:00,
2013-12-29 03:53:00,41.4,24.1,30.19,South,180,4.0,6.0,50,0.00,,,0.00,meteohub,2013-12-29 08:53:00,
2013-12-29 03:54:00,41.4,24.1,30.19,South,180,4.0,6.0,50,0.00,,,0.00,meteohub,2013-12-29 08:54:00,
2013-12-29 03:55:00,41.4,24.1,30.19,WSW,248,4.0,6.0,50,0.00,,,0.00,meteohub,2013-12-29 08:55:00,
2013-12-29 03:57:00,41.4,23.7,30.19,West,270,2.0,6.0,49,0.00,,,0.00,meteohub,2013-12-29 08:57:00,
2013-12-29 03:58:00,41.4,23.7,30.18,SE,135,2.0,6.0,49,0.00,,,0.00,meteohub,2013-12-29 08:58:00,
2013-12-29 03:59:00,41.4,23.7,30.18,SE,135,2.0,6.0,49,0.00,,,0.00,meteohub,2013-12-29 08:59:00,
2013-12-29 04:00:00,41.4,23.7,30.18,NE,45,3.0,6.0,49,0.00,,,0.00,meteohub,2013-12-29 09:00:00,
2013-12-29 04:02:00,41.4,23.7,30.18,NE,45,3.0,6.0,49,0.00,,,0.00,meteohub,2013-12-29 09:02:00,
2013-12-29 04:04:00,41.4,23.7,30.18,NE,45,3.0,6.0,49,0.00,,,0.00,meteohub,2013-12-29 09:04:00,
2013-12-29 04:05:00,41.4,23.7,30.18,NE,45,3.0,6.0,49,0.00,,,0.00,meteohub,2013-12-29 09:05:00,
2013-12-29 04:07:00,41.5,23.7,30.19,South,180,3.0,6.0,49,0.00,,,0.00,meteohub,2013-12-29 09:07:00,
2013-12-29 04:09:00,41.7,23.9,30.18,South,180,3.0,6.0,49,0.00,,,0.00,meteohub,2013-12-29 09:09:00,
2013-12-29 04:10:00,41.7,23.9,30.18,South,180,3.0,6.0,49,0.00,,,0.00,meteohub,2013-12-29 09:10:00,
2013-12-29 04:11:00,41.7,23.9,30.17,SE,135,3.0,6.0,49,0.00,,,0.00,meteohub,2013-12-29 09:11:00,
2013-12-29 04:12:00,41.7,23.9,30.17,SE,135,3.0,6.0,49,0.00,,,0.00,meteohub,2013-12-29 09:12:00,
2013-12-29 04:13:00,41.7,23.9,30.17,South,180,2.0,6.0,49,0.00,,,0.00,meteohub,2013-12-29 09:13:00,
2013-12-29 04:15:00,41.7,23.9,30.17,South,180,2.0,6.0,49,0.00,,,0.00,meteohub,2013-12-29 09:15:00,
2013-12-29 04:17:00,41.9,23.7,30.16,South,180,4.0,5.0,48,0.00,,,0.00,meteohub,2013-12-29 09:17:00,
2013-12-29 04:18:00,41.9,23.7,30.16,SE,135,4.0,5.0,48,0.00,,,0.00,meteohub,2013-12-29 09:18:00,
2013-12-29 04:19:00,41.9,23.7,30.16,SE,135,4.0,5.0,48,0.00,,,0.00,meteohub,2013-12-29 09:19:00,
2013-12-29 04:20:00,42.1,23.7,30.16,WSW,248,6.0,6.0,48,0.00,,,0.00,meteohub,2013-12-29 09:20:00,
2013-12-29 04:21:00,42.1,23.7,30.16,South,180,2.0,5.0,48,0.00,,,0.00,meteohub,2013-12-29 09:21:00,
2013-12-29 04:23:00,42.1,23.7,30.16,SE,135,3.0,5.0,48,0.00,,,0.00,meteohub,2013-12-29 09:23:00,
2013-12-29 04:25:00,42.1,23.7,30.15,South,180,4.0,5.0,48,0.00,,,0.00,meteohub,2013-12-29 09:25:00,
2013-12-29 04:26:00,42.3,23.5,30.15,West,270,2.0,7.0,47,0.00,,,0.00,meteohub,2013-12-29 09:26:00,
2013-12-29 04:28:00,42.3,23.5,30.15,South,180,2.0,7.0,47,0.00,,,0.00,meteohub,2013-12-29 09:28:00,
2013-12-29 04:29:00,42.3,23.5,30.14,South,180,2.0,7.0,47,0.00,,,0.00,meteohub,2013-12-29 09:29:00,
2013-12-29 04:30:00,42.3,23.5,30.14,South,180,2.0,7.0,47,0.00,,,0.00,meteohub,2013-12-29 09:30:00,
2013-12-29 04:31:00,42.3,23.5,30.14,South,180,2.0,7.0,47,0.00,,,0.00,meteohub,2013-12-29 09:31:00,
2013-12-29 04:32:00,42.4,23.7,30.14,South,180,2.0,7.0,47,0.00,,,0.00,meteohub,2013-12-29 09:32:00,
2013-12-29 04:35:00,42.4,23.7,30.14,SE,135,2.0,7.0,47,0.00,,,0.00,meteohub,2013-12-29 09:35:00,
2013-12-29 04:36:00,42.4,23.2,30.14,SE,135,2.0,6.0,46,0.00,,,0.00,meteohub,2013-12-29 09:36:00,
2013-12-29 04:37:00,42.4,23.2,30.14,SE,135,2.0,6.0,46,0.00,,,0.00,meteohub,2013-12-29 09:37:00,
2013-12-29 04:40:00,42.4,23.2,30.14,WSW,248,2.0,6.0,46,0.00,,,0.00,meteohub,2013-12-29 09:40:00,
2013-12-29 04:41:00,42.4,23.2,30.14,WSW,248,2.0,5.0,46,0.00,,,0.00,meteohub,2013-12-29 09:41:00,
2013-12-29 04:42:00,42.4,23.2,30.14,WSW,248,2.0,5.0,46,0.00,,,0.00,meteohub,2013-12-29 09:42:00,
2013-12-29 04:43:00,42.6,23.4,30.14,SE,135,3.0,5.0,46,0.00,,,0.00,meteohub,2013-12-29 09:43:00,
2013-12-29 04:44:00,42.6,23.4,30.14,SE,135,2.0,5.0,46,0.00,,,0.00,meteohub,2013-12-29 09:44:00,
2013-12-29 04:45:00,42.6,23.4,30.13,East,90,2.0,5.0,46,0.00,,,0.00,meteohub,2013-12-29 09:45:00,
2013-12-29 04:47:00,42.6,23.7,30.13,East,90,2.0,5.0,47,0.00,,,0.00,meteohub,2013-12-29 09:47:00,
2013-12-29 04:49:00,42.6,23.4,30.13,South,180,2.0,5.0,46,0.00,,,0.00,meteohub,2013-12-29 09:49:00,
2013-12-29 04:50:00,42.6,23.4,30.13,WSW,248,2.0,5.0,46,0.00,,,0.00,meteohub,2013-12-29 09:50:00,
2013-12-29 04:51:00,42.6,23.4,30.12,South,180,2.0,5.0,46,0.00,,,0.00,meteohub,2013-12-29 09:51:00,
2013-12-29 04:52:00,42.6,23.4,30.13,South,180,2.0,3.0,46,0.00,,,0.00,meteohub,2013-12-29 09:52:00,
2013-12-29 04:53:00,42.8,23.0,30.13,WSW,248,4.0,4.0,45,0.00,,,0.00,meteohub,2013-12-29 09:53:00,
2013-12-29 04:55:00,42.8,23.4,30.13,WSW,248,2.0,3.0,46,0.00,,,0.00,meteohub,2013-12-29 09:55:00,
2013-12-29 04:56:00,42.8,23.4,30.13,South,180,4.0,4.0,46,0.00,,,0.00,meteohub,2013-12-29 09:56:00,
2013-12-29 04:58:00,42.8,23.4,30.13,SE,135,2.0,4.0,46,0.00,,,0.00,meteohub,2013-12-29 09:58:00,
2013-12-29 05:00:00,42.6,23.7,30.13,SE,135,2.0,4.0,47,0.00,,,0.00,meteohub,2013-12-29 10:00:00,
2013-12-29 05:01:00,42.6,23.7,30.13,SE,135,2.0,4.0,47,0.00,,,0.00,meteohub,2013-12-29 10:01:00,
2013-12-29 05:02:00,42.6,23.7,30.13,SE,135,2.0,4.0,47,0.00,,,0.00,meteohub,2013-12-29 10:02:00,
2013-12-29 05:03:00,42.6,23.7,30.13,SE,135,2.0,4.0,47,0.00,,,0.00,meteohub,2013-12-29 10:03:00,
2013-12-29 05:06:00,42.6,23.7,30.13,SE,135,2.0,4.0,47,0.00,,,0.00,meteohub,2013-12-29 10:06:00,
2013-12-29 05:07:00,42.6,23.7,30.12,SE,135,2.0,4.0,47,0.00,,,0.00,meteohub,2013-12-29 10:07:00,
2013-12-29 05:08:00,42.6,23.4,30.13,South,180,2.0,4.0,46,0.00,,,0.00,meteohub,2013-12-29 10:08:00,
2013-12-29 05:09:00,42.6,23.4,30.13,South,180,2.0,4.0,46,0.00,,,0.00,meteohub,2013-12-29 10:09:00,
2013-12-29 05:10:00,42.6,23.4,30.13,South,180,4.0,4.0,46,0.00,,,0.00,meteohub,2013-12-29 10:10:00,
2013-12-29 05:11:00,42.6,23.4,30.12,SE,135,2.0,4.0,46,0.00,,,0.00,meteohub,2013-12-29 10:11:00,
2013-12-29 05:12:00,42.6,23.4,30.12,SE,135,2.0,4.0,46,0.00,,,0.00,meteohub,2013-12-29 10:12:00,
2013-12-29 05:13:00,42.6,23.4,30.13,SE,135,2.0,4.0,46,0.00,,,0.00,meteohub,2013-12-29 10:13:00,
2013-12-29 05:14:00,42.6,22.8,30.13,South,180,2.0,4.0,45,0.00,,,0.00,meteohub,2013-12-29 10:14:00,
2013-12-29 05:15:00,42.6,23.4,30.13,WSW,248,2.0,4.0,46,0.00,,,0.00,meteohub,2013-12-29 10:15:00,
2013-12-29 05:17:00,42.6,23.4,30.13,WSW,248,2.0,4.0,46,0.00,,,0.00,meteohub,2013-12-29 10:17:00,
2013-12-29 05:19:00,42.6,22.8,30.14,South,180,3.0,4.0,45,0.00,,,0.00,meteohub,2013-12-29 10:19:00,
2013-12-29 05:20:00,42.6,22.8,30.14,South,180,3.0,4.0,45,0.00,,,0.00,meteohub,2013-12-29 10:20:00,
2013-12-29 05:21:00,42.6,22.8,30.13,South,180,2.0,4.0,45,0.00,,,0.00,meteohub,2013-12-29 10:21:00,
2013-12-29 05:23:00,42.6,22.8,30.14,South,180,2.0,4.0,45,0.00,,,0.00,meteohub,2013-12-29 10:23:00,
2013-12-29 05:25:00,42.6,22.8,30.14,WSW,248,2.0,4.0,45,0.00,,,0.00,meteohub,2013-12-29 10:25:00,
2013-12-29 05:26:00,42.6,22.8,30.14,WSW,248,3.0,4.0,45,0.00,,,0.00,meteohub,2013-12-29 10:26:00,
2013-12-29 05:27:00,42.6,22.8,30.14,WSW,248,4.0,4.0,45,0.00,,,0.00,meteohub,2013-12-29 10:27:00,
2013-12-29 05:29:00,42.6,22.8,30.14,South,180,3.0,4.0,45,0.00,,,0.00,meteohub,2013-12-29 10:29:00,
2013-12-29 05:30:00,42.6,23.4,30.14,South,180,2.0,4.0,46,0.00,,,0.00,meteohub,2013-12-29 10:30:00,
2013-12-29 05:31:00,42.6,22.8,30.14,South,180,4.0,4.0,45,0.00,,,0.00,meteohub,2013-12-29 10:31:00,
2013-12-29 05:34:00,42.4,23.2,30.14,South,180,2.0,4.0,46,0.00,,,0.00,meteohub,2013-12-29 10:34:00,
2013-12-29 05:35:00,42.4,23.2,30.14,WSW,248,4.0,4.0,46,0.00,,,0.00,meteohub,2013-12-29 10:35:00,
2013-12-29 05:37:00,42.4,23.2,30.14,South,180,2.0,4.0,46,0.00,,,0.00,meteohub,2013-12-29 10:37:00,
2013-12-29 05:38:00,42.4,23.2,30.14,South,180,2.0,4.0,46,0.00,,,0.00,meteohub,2013-12-29 10:38:00,
2013-12-29 05:39:00,42.4,23.2,30.15,SE,135,3.0,4.0,46,0.00,,,0.00,meteohub,2013-12-29 10:39:00,
2013-12-29 05:40:00,42.4,23.2,30.15,NNE,23,3.0,4.0,46,0.00,,,0.00,meteohub,2013-12-29 10:40:00,
2013-12-29 05:41:00,42.4,23.2,30.15,South,180,2.0,4.0,46,0.00,,,0.00,meteohub,2013-12-29 10:41:00,
2013-12-29 05:42:00,42.4,23.2,30.15,WSW,248,2.0,4.0,46,0.00,,,0.00,meteohub,2013-12-29 10:42:00,
2013-12-29 05:43:00,42.4,23.2,30.15,SE,135,2.0,4.0,46,0.00,,,0.00,meteohub,2013-12-29 10:43:00,
2013-12-29 05:44:00,42.4,23.2,30.15,SE,135,2.0,4.0,46,0.00,,,0.00,meteohub,2013-12-29 10:44:00,
2013-12-29 05:46:00,42.3,23.5,30.14,SE,135,2.0,4.0,47,0.00,,,0.00,meteohub,2013-12-29 10:46:00,
2013-12-29 05:47:00,42.3,23.5,30.14,SE,135,2.0,4.0,47,0.00,,,0.00,meteohub,2013-12-29 10:47:00,
2013-12-29 05:48:00,42.3,23.5,30.14,SE,135,2.0,4.0,47,0.00,,,0.00,meteohub,2013-12-29 10:48:00,
2013-12-29 05:50:00,42.3,23.5,30.14,SE,135,3.0,4.0,47,0.00,,,0.00,meteohub,2013-12-29 10:50:00,
2013-12-29 05:52:00,42.3,23.9,30.14,South,180,2.0,4.0,48,0.00,,,0.00,meteohub,2013-12-29 10:52:00,
2013-12-29 05:53:00,42.3,24.4,30.14,SE,135,2.0,4.0,49,0.00,,,0.00,meteohub,2013-12-29 10:53:00,
2013-12-29 05:56:00,42.1,24.8,30.15,South,180,2.0,4.0,50,0.00,,,0.00,meteohub,2013-12-29 10:56:00,
2013-12-29 05:58:00,41.9,25.2,30.15,South,180,2.0,4.0,51,0.00,,,0.00,meteohub,2013-12-29 10:58:00,
2013-12-29 05:59:00,41.9,25.2,30.15,WSW,248,2.0,4.0,51,0.00,,,0.00,meteohub,2013-12-29 10:59:00,
2013-12-29 06:00:00,41.9,25.2,30.16,South,180,2.0,4.0,51,0.00,,,0.00,meteohub,2013-12-29 11:00:00,
2013-12-29 06:01:00,41.9,25.2,30.15,South,180,2.0,4.0,51,0.00,,,0.00,meteohub,2013-12-29 11:01:00,
2013-12-29 06:03:00,41.7,25.0,30.15,South,180,2.0,4.0,51,0.00,,,0.00,meteohub,2013-12-29 11:03:00,
2013-12-29 06:04:00,41.7,25.0,30.14,South,180,2.0,4.0,51,0.00,,,0.00,meteohub,2013-12-29 11:04:00,
2013-12-29 06:05:00,41.7,25.0,30.15,South,180,2.0,4.0,51,0.00,,,0.00,meteohub,2013-12-29 11:05:00,
2013-12-29 06:06:00,41.7,25.9,30.14,South,180,2.0,2.0,53,0.00,,,0.00,meteohub,2013-12-29 11:06:00,
2013-12-29 06:07:00,41.7,25.9,30.14,South,180,3.0,3.0,53,0.00,,,0.00,meteohub,2013-12-29 11:07:00,
2013-12-29 06:10:00,41.7,25.9,30.15,South,180,2.0,2.0,53,0.00,,,0.00,meteohub,2013-12-29 11:10:00,
2013-12-29 06:11:00,41.7,26.2,30.14,South,180,2.0,3.0,54,0.00,,,0.00,meteohub,2013-12-29 11:11:00,
2013-12-29 06:12:00,41.7,26.8,30.14,SE,135,2.0,3.0,55,0.00,,,0.00,meteohub,2013-12-29 11:12:00,
2013-12-29 06:13:00,41.7,26.8,30.14,SE,135,2.0,3.0,55,0.00,,,0.00,meteohub,2013-12-29 11:13:00,
2013-12-29 06:15:00,41.5,27.0,30.14,WSW,248,1.0,3.0,56,0.00,,,0.00,meteohub,2013-12-29 11:15:00,
2013-12-29 06:17:00,41.5,27.0,30.14,WSW,248,1.0,3.0,56,0.00,,,0.00,meteohub,2013-12-29 11:17:00,
2013-12-29 06:18:00,41.4,26.8,30.14,WSW,248,3.0,3.0,56,0.00,,,0.00,meteohub,2013-12-29 11:18:00,
2013-12-29 06:19:00,41.4,26.4,30.14,WSW,248,4.0,4.0,55,0.00,,,0.00,meteohub,2013-12-29 11:19:00,
2013-12-29 06:21:00,41.4,26.8,30.14,South,180,2.0,4.0,56,0.00,,,0.00,meteohub,2013-12-29 11:21:00,
2013-12-29 06:23:00,41.5,27.5,30.14,SE,135,2.0,4.0,57,0.00,,,0.00,meteohub,2013-12-29 11:23:00,
2013-12-29 06:24:00,41.5,27.9,30.14,South,180,2.0,4.0,58,0.00,,,0.00,meteohub,2013-12-29 11:24:00,
2013-12-29 06:26:00,41.4,27.7,30.14,South,180,0.0,4.0,58,0.00,,,0.00,meteohub,2013-12-29 11:26:00,
2013-12-29 06:28:00,41.4,28.0,30.13,East,90,2.0,4.0,59,0.00,,,0.00,meteohub,2013-12-29 11:28:00,
2013-12-29 06:29:00,41.2,28.4,30.14,NE,45,2.0,4.0,60,0.00,,,0.00,meteohub,2013-12-29 11:29:00,
2013-12-29 06:30:00,41.2,28.4,30.14,NW,315,1.0,4.0,60,0.00,,,0.00,meteohub,2013-12-29 11:30:00,
2013-12-29 06:31:00,41.0,28.6,30.14,NW,315,2.0,4.0,61,0.00,,,0.00,meteohub,2013-12-29 11:31:00,
2013-12-29 06:33:00,41.0,28.6,30.14,NW,315,2.0,4.0,61,0.00,,,0.00,meteohub,2013-12-29 11:33:00,
2013-12-29 06:34:00,40.8,29.7,30.14,SE,135,2.0,4.0,64,0.00,,,0.00,meteohub,2013-12-29 11:34:00,
2013-12-29 06:35:00,40.8,29.7,30.14,SE,135,2.0,4.0,64,0.00,,,0.00,meteohub,2013-12-29 11:35:00,
2013-12-29 06:37:00,40.6,30.2,30.14,South,180,2.0,2.0,66,0.00,,,0.00,meteohub,2013-12-29 11:37:00,
2013-12-29 06:38:00,40.3,30.9,30.13,East,90,2.0,2.0,69,0.00,,,0.00,meteohub,2013-12-29 11:38:00,
2013-12-29 06:39:00,40.1,31.5,30.14,SE,135,2.0,2.0,71,0.00,,,0.00,meteohub,2013-12-29 11:39:00,
2013-12-29 06:40:00,40.1,31.5,30.14,SE,135,2.0,2.0,71,0.00,,,0.00,meteohub,2013-12-29 11:40:00,
2013-12-29 06:43:00,39.6,32.5,30.13,SE,135,2.0,2.0,76,0.01,,,0.01,meteohub,2013-12-29 11:43:00,
2013-12-29 06:44:00,39.2,32.9,30.13,SE,135,2.0,2.0,78,0.01,,,0.01,meteohub,2013-12-29 11:44:00,
2013-12-29 06:45:00,39.0,32.7,30.13,SE,135,2.0,2.0,78,0.01,,,0.01,meteohub,2013-12-29 11:45:00,
2013-12-29 06:46:00,38.8,33.3,30.13,East,90,2.0,2.0,80,0.01,,,0.01,meteohub,2013-12-29 11:46:00,
2013-12-29 06:48:00,38.7,33.6,30.12,East,90,3.0,3.0,82,0.01,,,0.01,meteohub,2013-12-29 11:48:00,
2013-12-29 06:49:00,38.5,33.4,30.12,East,90,3.0,3.0,82,0.01,,,0.01,meteohub,2013-12-29 11:49:00,
2013-12-29 06:51:00,38.3,34.0,30.12,East,90,3.0,3.0,84,0.01,,,0.01,meteohub,2013-12-29 11:51:00,
2013-12-29 06:52:00,38.3,34.0,30.12,East,90,3.0,3.0,84,0.01,,,0.01,meteohub,2013-12-29 11:52:00,
2013-12-29 06:53:00,38.1,33.8,30.12,SE,135,3.0,3.0,84,0.01,,,0.01,meteohub,2013-12-29 11:53:00,
2013-12-29 06:54:00,38.1,33.8,30.12,East,90,3.0,3.0,84,0.01,,,0.01,meteohub,2013-12-29 11:54:00,
2013-12-29 06:56:00,37.9,33.6,30.12,East,90,4.0,4.0,84,0.01,,,0.01,meteohub,2013-12-29 11:56:00,
2013-12-29 06:57:00,38.1,34.0,30.12,East,90,4.0,4.0,85,0.01,,,0.01,meteohub,2013-12-29 11:57:00,
2013-12-29 06:58:00,37.9,33.8,30.11,SE,135,4.0,4.0,85,0.01,,,0.01,meteohub,2013-12-29 11:58:00,
2013-12-29 06:59:00,38.1,34.3,30.12,SE,135,4.0,4.0,86,0.01,,,0.01,meteohub,2013-12-29 11:59:00,
2013-12-29 07:01:00,38.1,34.5,30.12,SE,135,4.0,4.0,87,0.01,,,0.01,meteohub,2013-12-29 12:01:00,
2013-12-29 07:02:00,38.1,34.5,30.12,SE,135,4.0,4.0,87,0.01,,,0.01,meteohub,2013-12-29 12:02:00,
2013-12-29 07:04:00,38.3,35.1,30.11,East,90,4.0,4.0,88,0.01,,,0.01,meteohub,2013-12-29 12:04:00,
2013-12-29 07:06:00,38.1,35.2,30.11,East,90,4.0,4.0,89,0.02,,,0.02,meteohub,2013-12-29 12:06:00,
2013-12-29 07:08:00,38.1,35.2,30.11,East,90,4.0,4.0,89,0.02,,,0.02,meteohub,2013-12-29 12:08:00,
2013-12-29 07:09:00,38.1,35.4,30.11,East,90,4.0,4.0,90,0.02,,,0.02,meteohub,2013-12-29 12:09:00,
2013-12-29 07:11:00,37.9,35.2,30.11,East,90,4.0,5.0,90,0.04,,,0.04,meteohub,2013-12-29 12:11:00,
2013-12-29 07:12:00,37.9,35.2,30.11,East,90,4.0,5.0,90,0.04,,,0.04,meteohub,2013-12-29 12:12:00,
2013-12-29 07:14:00,37.9,35.6,30.11,East,90,4.0,5.0,91,0.04,,,0.04,meteohub,2013-12-29 12:14:00,
2013-12-29 07:16:00,37.8,35.4,30.10,East,90,4.0,5.0,91,0.05,,,0.04,meteohub,2013-12-29 12:16:00,
2013-12-29 07:17:00,37.8,35.4,30.10,East,90,4.0,5.0,91,0.05,,,0.04,meteohub,2013-12-29 12:17:00,
2013-12-29 07:19:00,37.8,35.6,30.09,East,90,4.0,5.0,92,0.05,,,0.04,meteohub,2013-12-29 12:19:00,
2013-12-29 07:21:00,37.8,35.6,30.09,East,90,5.0,5.0,92,0.05,,,0.05,meteohub,2013-12-29 12:21:00,
2013-12-29 07:22:00,37.6,35.8,30.08,East,90,5.0,5.0,93,0.05,,,0.05,meteohub,2013-12-29 12:22:00,
2013-12-29 07:23:00,37.6,35.8,30.08,East,90,5.0,5.0,93,0.05,,,0.05,meteohub,2013-12-29 12:23:00,
2013-12-29 07:25:00,37.4,35.6,30.08,East,90,5.0,5.0,93,0.05,,,0.05,meteohub,2013-12-29 12:25:00,
2013-12-29 07:27:00,37.4,35.8,30.07,East,90,6.0,6.0,94,0.06,,,0.06,meteohub,2013-12-29 12:27:00,
2013-12-29 07:28:00,37.4,35.8,30.07,East,90,6.0,6.0,94,0.06,,,0.06,meteohub,2013-12-29 12:28:00,
2013-12-29 07:31:00,37.2,35.6,30.07,East,90,4.0,6.0,94,0.06,,,0.06,meteohub,2013-12-29 12:31:00,
2013-12-29 07:32:00,37.2,35.6,30.07,East,90,4.0,6.0,94,0.06,,,0.06,meteohub,2013-12-29 12:32:00,
2013-12-29 07:33:00,37.2,35.6,30.07,East,90,4.0,6.0,94,0.06,,,0.06,meteohub,2013-12-29 12:33:00,
2013-12-29 07:34:00,37.2,35.6,30.07,East,90,4.0,6.0,94,0.06,,,0.06,meteohub,2013-12-29 12:34:00,
2013-12-29 07:37:00,37.2,35.6,30.06,East,90,4.0,6.0,94,0.06,,,0.06,meteohub,2013-12-29 12:37:00,
2013-12-29 07:38:00,37.2,35.6,30.06,East,90,4.0,6.0,94,0.06,,,0.06,meteohub,2013-12-29 12:38:00,
2013-12-29 07:39:00,37.0,35.4,30.06,East,90,4.0,6.0,94,0.06,,,0.06,meteohub,2013-12-29 12:39:00,
2013-12-29 07:41:00,37.0,35.4,30.06,ESE,113,4.0,6.0,94,0.05,,,0.06,meteohub,2013-12-29 12:41:00,
2013-12-29 07:43:00,37.0,35.4,30.06,SE,135,3.0,6.0,94,0.05,,,0.06,meteohub,2013-12-29 12:43:00,
2013-12-29 07:45:00,37.2,35.6,30.06,East,90,5.0,6.0,94,0.05,,,0.06,meteohub,2013-12-29 12:45:00,
2013-12-29 07:46:00,37.2,35.6,30.06,East,90,4.0,5.0,94,0.05,,,0.06,meteohub,2013-12-29 12:46:00,
2013-12-29 07:47:00,37.2,35.6,30.06,East,90,4.0,5.0,94,0.05,,,0.06,meteohub,2013-12-29 12:47:00,
2013-12-29 07:49:00,37.2,35.6,30.06,East,90,4.0,5.0,94,0.05,,,0.06,meteohub,2013-12-29 12:49:00,
2013-12-29 07:50:00,37.2,35.6,30.06,East,90,4.0,5.0,94,0.05,,,0.06,meteohub,2013-12-29 12:50:00,
2013-12-29 07:51:00,37.4,35.8,30.05,East,90,3.0,5.0,94,0.05,,,0.06,meteohub,2013-12-29 12:51:00,
2013-12-29 07:52:00,37.4,35.8,30.05,East,90,3.0,5.0,94,0.05,,,0.06,meteohub,2013-12-29 12:52:00,
2013-12-29 07:55:00,37.4,35.8,30.05,East,90,4.0,8.0,94,0.06,,,0.07,meteohub,2013-12-29 12:55:00,
2013-12-29 07:56:00,37.4,35.8,30.05,East,90,4.0,8.0,94,0.06,,,0.07,meteohub,2013-12-29 12:56:00,
2013-12-29 07:57:00,37.4,35.8,30.05,East,90,4.0,8.0,94,0.06,,,0.07,meteohub,2013-12-29 12:57:00,
2013-12-29 07:58:00,37.4,35.8,30.05,East,90,4.0,8.0,94,0.06,,,0.07,meteohub,2013-12-29 12:58:00,
2013-12-29 08:01:00,37.6,36.3,30.05,East,90,4.0,8.0,95,0.06,,,0.07,meteohub,2013-12-29 13:01:00,
2013-12-29 08:02:00,37.6,36.3,30.05,East,90,4.0,8.0,95,0.06,,,0.07,meteohub,2013-12-29 13:02:00,
2013-12-29 08:03:00,37.6,36.3,30.05,SE,135,4.0,8.0,95,0.06,,,0.07,meteohub,2013-12-29 13:03:00,
2013-12-29 08:04:00,37.6,36.3,30.05,SE,135,4.0,8.0,95,0.06,,,0.07,meteohub,2013-12-29 13:04:00,
2013-12-29 08:06:00,37.6,36.3,30.06,SE,135,4.0,8.0,95,0.06,,,0.08,meteohub,2013-12-29 13:06:00,
2013-12-29 08:07:00,37.6,36.3,30.05,East,90,5.0,8.0,95,0.06,,,0.08,meteohub,2013-12-29 13:07:00,
2013-12-29 08:08:00,37.6,36.3,30.05,East,90,4.0,8.0,95,0.06,,,0.08,meteohub,2013-12-29 13:08:00,
2013-12-29 08:09:00,37.6,36.3,30.05,East,90,4.0,8.0,95,0.06,,,0.08,meteohub,2013-12-29 13:09:00,
2013-12-29 08:10:00,37.8,36.5,30.05,East,90,4.0,8.0,95,0.06,,,0.08,meteohub,2013-12-29 13:10:00,
2013-12-29 08:11:00,37.8,36.5,30.06,East,90,4.0,5.0,95,0.05,,,0.08,meteohub,2013-12-29 13:11:00,
2013-12-29 08:12:00,37.8,36.5,30.05,SE,135,4.0,5.0,95,0.05,,,0.08,meteohub,2013-12-29 13:12:00,
2013-12-29 08:14:00,37.8,36.5,30.05,NE,45,7.0,7.0,95,0.05,,,0.08,meteohub,2013-12-29 13:14:00,
2013-12-29 08:15:00,37.8,36.5,30.06,East,90,5.0,5.0,95,0.05,,,0.09,meteohub,2013-12-29 13:15:00,
2013-12-29 08:17:00,37.8,36.5,30.05,East,90,4.0,5.0,95,0.05,,,0.09,meteohub,2013-12-29 13:17:00,
2013-12-29 08:18:00,37.8,36.5,30.06,East,90,5.0,5.0,95,0.05,,,0.09,meteohub,2013-12-29 13:18:00,
2013-12-29 08:19:00,37.8,36.5,30.05,East,90,4.0,5.0,95,0.05,,,0.09,meteohub,2013-12-29 13:19:00,
2013-12-29 08:20:00,37.8,36.5,30.05,East,90,4.0,5.0,95,0.05,,,0.11,meteohub,2013-12-29 13:20:00,
2013-12-29 08:21:00,37.8,36.5,30.05,East,90,5.0,8.0,95,0.06,,,0.11,meteohub,2013-12-29 13:21:00,
2013-12-29 08:22:00,37.8,36.5,30.05,East,90,5.0,8.0,95,0.06,,,0.11,meteohub,2013-12-29 13:22:00,
2013-12-29 08:25:00,37.8,36.7,30.05,SE,135,5.0,8.0,96,0.06,,,0.12,meteohub,2013-12-29 13:25:00,
2013-12-29 08:26:00,37.8,36.7,30.06,East,90,4.0,8.0,96,0.06,,,0.12,meteohub,2013-12-29 13:26:00,
2013-12-29 08:27:00,37.8,36.7,30.06,East,90,4.0,8.0,96,0.06,,,0.12,meteohub,2013-12-29 13:27:00,
2013-12-29 08:31:00,37.8,37.0,30.05,East,90,5.0,7.0,97,0.08,,,0.14,meteohub,2013-12-29 13:31:00,
2013-12-29 08:33:00,37.8,37.0,30.06,East,90,4.0,7.0,97,0.08,,,0.14,meteohub,2013-12-29 13:33:00,
2013-12-29 08:36:00,37.8,37.2,30.05,SE,135,4.0,7.0,98,0.11,,,0.17,meteohub,2013-12-29 13:36:00,
2013-12-29 08:37:00,37.8,37.2,30.06,East,90,4.0,7.0,98,0.11,,,0.17,meteohub,2013-12-29 13:37:00,
2013-12-29 08:38:00,37.8,37.2,30.06,East,90,4.0,7.0,98,0.11,,,0.17,meteohub,2013-12-29 13:38:00,
2013-12-29 08:39:00,37.8,37.2,30.06,East,90,4.0,7.0,98,0.11,,,0.17,meteohub,2013-12-29 13:39:00,
2013-12-29 08:40:00,37.8,37.2,30.06,East,90,4.0,7.0,98,0.11,,,0.17,meteohub,2013-12-29 13:40:00,
2013-12-29 08:42:00,37.8,37.2,30.05,East,90,4.0,7.0,98,0.12,,,0.18,meteohub,2013-12-29 13:42:00,
2013-12-29 08:43:00,37.8,37.2,30.05,East,90,4.0,7.0,98,0.12,,,0.18,meteohub,2013-12-29 13:43:00,
2013-12-29 08:45:00,37.8,37.2,30.05,SE,135,4.0,6.0,98,0.14,,,0.20,meteohub,2013-12-29 13:45:00,
2013-12-29 08:46:00,37.8,37.2,30.05,SE,135,4.0,6.0,98,0.14,,,0.20,meteohub,2013-12-29 13:46:00,
2013-12-29 08:47:00,37.8,37.2,30.05,SE,135,5.0,6.0,98,0.14,,,0.20,meteohub,2013-12-29 13:47:00,
2013-12-29 08:48:00,37.9,37.8,30.05,South,180,4.0,6.0,99,0.14,,,0.20,meteohub,2013-12-29 13:48:00,
2013-12-29 08:50:00,37.9,37.8,30.05,East,90,4.0,6.0,99,0.14,,,0.20,meteohub,2013-12-29 13:50:00,
2013-12-29 08:51:00,37.9,37.8,30.06,East,90,2.0,6.0,99,0.15,,,0.21,meteohub,2013-12-29 13:51:00,
2013-12-29 08:52:00,37.9,37.8,30.06,East,90,2.0,6.0,99,0.15,,,0.21,meteohub,2013-12-29 13:52:00,
2013-12-29 08:53:00,37.9,37.8,30.05,East,90,3.0,6.0,99,0.15,,,0.21,meteohub,2013-12-29 13:53:00,
2013-12-29 08:54:00,37.9,37.8,30.06,East,90,4.0,6.0,99,0.15,,,0.21,meteohub,2013-12-29 13:54:00,
2013-12-29 08:56:00,37.9,37.8,30.05,SE,135,4.0,6.0,99,0.15,,,0.22,meteohub,2013-12-29 13:56:00,
2013-12-29 08:57:00,38.1,37.9,30.06,East,90,4.0,6.0,99,0.15,,,0.22,meteohub,2013-12-29 13:57:00,
2013-12-29 08:58:00,38.1,37.9,30.05,SE,135,3.0,6.0,99,0.15,,,0.22,meteohub,2013-12-29 13:58:00,
2013-12-29 09:00:00,38.1,37.9,30.05,East,90,4.0,6.0,99,0.15,,,0.25,meteohub,2013-12-29 14:00:00,
2013-12-29 09:02:00,37.9,37.8,30.05,East,90,6.0,6.0,99,0.18,,,0.25,meteohub,2013-12-29 14:02:00,
2013-12-29 09:03:00,37.9,37.8,30.05,East,90,6.0,6.0,99,0.18,,,0.25,meteohub,2013-12-29 14:03:00,
2013-12-29 09:04:00,38.1,37.9,30.04,East,90,4.0,6.0,99,0.18,,,0.25,meteohub,2013-12-29 14:04:00,
2013-12-29 09:08:00,38.1,37.9,30.04,East,90,5.0,6.0,99,0.18,,,0.25,meteohub,2013-12-29 14:08:00,
2013-12-29 09:09:00,38.1,37.9,30.04,East,90,4.0,6.0,99,0.18,,,0.25,meteohub,2013-12-29 14:09:00,
2013-12-29 09:12:00,38.3,38.1,30.04,NE,45,7.0,7.0,99,0.19,,,0.27,meteohub,2013-12-29 14:12:00,
2013-12-29 09:13:00,38.3,38.1,30.04,East,90,5.0,6.0,99,0.19,,,0.27,meteohub,2013-12-29 14:13:00,
2013-12-29 09:14:00,38.3,38.1,30.04,East,90,4.0,6.0,99,0.19,,,0.27,meteohub,2013-12-29 14:14:00,
2013-12-29 09:15:00,38.3,38.1,30.04,East,90,4.0,6.0,99,0.19,,,0.28,meteohub,2013-12-29 14:15:00,
2013-12-29 09:17:00,38.3,38.1,30.03,East,90,6.0,7.0,99,0.19,,,0.28,meteohub,2013-12-29 14:17:00,
2013-12-29 09:19:00,38.3,38.1,30.02,East,90,5.0,7.0,99,0.19,,,0.28,meteohub,2013-12-29 14:19:00,
2013-12-29 09:21:00,38.3,38.1,30.03,East,90,4.0,7.0,99,0.19,,,0.30,meteohub,2013-12-29 14:21:00,
2013-12-29 09:22:00,38.3,38.1,30.02,SE,135,5.0,7.0,99,0.19,,,0.30,meteohub,2013-12-29 14:22:00,
2013-12-29 09:25:00,38.3,38.1,30.03,East,90,4.0,7.0,99,0.19,,,0.30,meteohub,2013-12-29 14:25:00,
2013-12-29 09:26:00,38.5,38.3,30.03,East,90,4.0,7.0,99,0.18,,,0.31,meteohub,2013-12-29 14:26:00,
2013-12-29 09:27:00,38.5,38.3,30.02,East,90,4.0,7.0,99,0.18,,,0.31,meteohub,2013-12-29 14:27:00,
2013-12-29 09:28:00,38.5,38.3,30.02,East,90,4.0,7.0,99,0.18,,,0.31,meteohub,2013-12-29 14:28:00,
2013-12-29 09:30:00,38.5,38.3,30.02,SE,135,7.0,7.0,99,0.18,,,0.31,meteohub,2013-12-29 14:30:00,
2013-12-29 09:31:00,38.5,38.3,30.02,East,90,8.0,8.0,99,0.17,,,0.32,meteohub,2013-12-29 14:31:00,
2013-12-29 09:33:00,38.5,38.3,30.01,East,90,8.0,8.0,99,0.17,,,0.32,meteohub,2013-12-29 14:33:00,
2013-12-29 09:35:00,38.5,38.3,30.01,East,90,5.0,7.0,99,0.15,,,0.32,meteohub,2013-12-29 14:35:00,
2013-12-29 09:36:00,38.5,38.3,30.01,SE,135,5.0,8.0,99,0.15,,,0.32,meteohub,2013-12-29 14:36:00,
2013-12-29 09:37:00,38.5,38.3,30.01,SE,135,6.0,8.0,99,0.15,,,0.32,meteohub,2013-12-29 14:37:00,
2013-12-29 09:38:00,38.5,38.3,30.01,East,90,6.0,8.0,99,0.15,,,0.32,meteohub,2013-12-29 14:38:00,
2013-12-29 09:39:00,38.5,38.3,30.01,East,90,6.0,8.0,99,0.15,,,0.32,meteohub,2013-12-29 14:39:00,
2013-12-29 09:40:00,38.7,38.5,30.01,East,90,9.0,9.0,99,0.14,,,0.33,meteohub,2013-12-29 14:40:00,
2013-12-29 09:41:00,38.7,38.5,30.01,SE,135,5.0,8.0,99,0.14,,,0.33,meteohub,2013-12-29 14:41:00,
2013-12-29 09:42:00,38.7,38.5,30.02,East,90,5.0,8.0,99,0.14,,,0.33,meteohub,2013-12-29 14:42:00,
2013-12-29 09:45:00,38.7,38.5,30.01,East,90,6.0,8.0,99,0.14,,,0.33,meteohub,2013-12-29 14:45:00,
2013-12-29 09:46:00,38.7,38.5,30.01,East,90,5.0,9.0,99,0.14,,,0.34,meteohub,2013-12-29 14:46:00,
2013-12-29 09:47:00,38.7,38.5,30.01,East,90,7.0,9.0,99,0.14,,,0.34,meteohub,2013-12-29 14:47:00,
2013-12-29 09:48:00,38.7,38.5,30.01,East,90,6.0,9.0,99,0.14,,,0.34,meteohub,2013-12-29 14:48:00,
2013-12-29 09:50:00,38.7,38.5,30.01,East,90,8.0,9.0,99,0.14,,,0.34,meteohub,2013-12-29 14:50:00,
2013-12-29 09:51:00,38.7,38.5,30.01,East,90,6.0,9.0,99,0.13,,,0.34,meteohub,2013-12-29 14:51:00,
2013-12-29 09:52:00,38.7,38.5,30.01,SE,135,4.0,9.0,99,0.13,,,0.34,meteohub,2013-12-29 14:52:00,
2013-12-29 09:53:00,38.7,38.5,30.01,SE,135,6.0,9.0,99,0.13,,,0.34,meteohub,2013-12-29 14:53:00,
2013-12-29 09:55:00,38.7,38.5,30.01,East,90,5.0,9.0,99,0.13,,,0.34,meteohub,2013-12-29 14:55:00,
2013-12-29 09:58:00,38.7,38.5,30.01,SE,135,5.0,9.0,99,0.11,,,0.34,meteohub,2013-12-29 14:58:00,
2013-12-29 09:59:00,38.7,38.5,30.00,East,90,8.0,9.0,99,0.11,,,0.34,meteohub,2013-12-29 14:59:00,
2013-12-29 10:00:00,38.7,38.5,30.00,East,90,4.0,9.0,99,0.11,,,0.34,meteohub,2013-12-29 15:00:00,
2013-12-29 10:04:00,38.7,38.5,29.99,East,90,5.0,8.0,99,0.09,,,0.34,meteohub,2013-12-29 15:04:00,
2013-12-29 10:05:00,38.7,38.5,29.99,East,90,9.0,9.0,99,0.09,,,0.35,meteohub,2013-12-29 15:05:00,
2013-12-29 10:07:00,38.7,38.5,29.99,East,90,6.0,8.0,99,0.09,,,0.35,meteohub,2013-12-29 15:07:00,
2013-12-29 10:08:00,38.7,38.5,29.99,East,90,5.0,8.0,99,0.09,,,0.35,meteohub,2013-12-29 15:08:00,
2013-12-29 10:11:00,38.7,38.5,29.99,East,90,6.0,9.0,99,0.08,,,0.37,meteohub,2013-12-29 15:11:00,
2013-12-29 10:13:00,38.8,38.7,29.99,ESE,113,6.0,9.0,99,0.08,,,0.37,meteohub,2013-12-29 15:13:00,
2013-12-29 10:14:00,38.8,38.7,29.99,East,90,6.0,9.0,99,0.08,,,0.37,meteohub,2013-12-29 15:14:00,
2013-12-29 10:16:00,38.8,38.7,29.99,East,90,8.0,9.0,99,0.07,,,0.37,meteohub,2013-12-29 15:16:00,
2013-12-29 10:17:00,38.8,38.7,29.98,East,90,6.0,9.0,99,0.07,,,0.37,meteohub,2013-12-29 15:17:00,
2013-12-29 10:19:00,38.8,38.7,29.98,East,90,6.0,9.0,99,0.07,,,0.37,meteohub,2013-12-29 15:19:00,
2013-12-29 10:20:00,38.8,38.7,29.98,East,90,7.0,8.0,99,0.07,,,0.37,meteohub,2013-12-29 15:20:00,
2013-12-29 10:21:00,38.8,38.7,29.98,East,90,6.0,8.0,99,0.07,,,0.37,meteohub,2013-12-29 15:21:00,
2013-12-29 10:22:00,38.8,38.7,29.98,East,90,6.0,8.0,99,0.07,,,0.37,meteohub,2013-12-29 15:22:00,
2013-12-29 10:26:00,39.0,38.8,29.97,East,90,6.0,8.0,99,0.06,,,0.37,meteohub,2013-12-29 15:26:00,
2013-12-29 10:27:00,39.0,38.8,29.97,East,90,6.0,8.0,99,0.06,,,0.37,meteohub,2013-12-29 15:27:00,
2013-12-29 10:28:00,39.0,38.8,29.97,East,90,4.0,8.0,99,0.06,,,0.37,meteohub,2013-12-29 15:28:00,
2013-12-29 10:29:00,39.0,38.8,29.97,SE,135,5.0,8.0,99,0.06,,,0.37,meteohub,2013-12-29 15:29:00,
2013-12-29 10:32:00,39.2,39.0,29.97,East,90,4.0,8.0,99,0.05,,,0.37,meteohub,2013-12-29 15:32:00,
2013-12-29 10:33:00,39.0,38.8,29.97,East,90,6.0,8.0,99,0.05,,,0.37,meteohub,2013-12-29 15:33:00,
2013-12-29 10:35:00,39.2,39.0,29.96,SE,135,4.0,7.0,99,0.04,,,0.37,meteohub,2013-12-29 15:35:00,
2013-12-29 10:37:00,39.2,39.0,29.97,East,90,5.0,7.0,99,0.04,,,0.37,meteohub,2013-12-29 15:37:00,
2013-12-29 10:38:00,39.2,39.0,29.97,East,90,4.0,7.0,99,0.04,,,0.37,meteohub,2013-12-29 15:38:00,
2013-12-29 10:39:00,39.2,39.0,29.96,East,90,4.0,7.0,99,0.04,,,0.37,meteohub,2013-12-29 15:39:00,
2013-12-29 10:41:00,39.2,39.0,29.96,East,90,4.0,6.0,99,0.05,,,0.38,meteohub,2013-12-29 15:41:00,
2013-12-29 10:42:00,39.4,39.2,29.96,East,90,4.0,6.0,99,0.05,,,0.38,meteohub,2013-12-29 15:42:00,
2013-12-29 10:43:00,39.2,39.0,29.96,East,90,4.0,6.0,99,0.05,,,0.38,meteohub,2013-12-29 15:43:00,
2013-12-29 10:45:00,39.2,39.0,29.96,East,90,5.0,6.0,99,0.04,,,0.38,meteohub,2013-12-29 15:45:00,
2013-12-29 10:46:00,39.2,39.0,29.96,East,90,4.0,6.0,99,0.04,,,0.38,meteohub,2013-12-29 15:46:00,
2013-12-29 10:47:00,39.2,39.0,29.96,East,90,4.0,6.0,99,0.04,,,0.38,meteohub,2013-12-29 15:47:00,
2013-12-29 10:49:00,39.4,39.2,29.96,East,90,4.0,6.0,99,0.04,,,0.38,meteohub,2013-12-29 15:49:00,
2013-12-29 10:51:00,39.4,39.2,29.96,East,90,7.0,7.0,99,0.05,,,0.39,meteohub,2013-12-29 15:51:00,
2013-12-29 10:52:00,39.4,39.2,29.96,SE,135,5.0,5.0,99,0.05,,,0.39,meteohub,2013-12-29 15:52:00,
2013-12-29 10:53:00,39.4,39.2,29.95,SE,135,6.0,6.0,99,0.05,,,0.39,meteohub,2013-12-29 15:53:00,
2013-12-29 10:54:00,39.4,39.2,29.95,SE,135,6.0,6.0,99,0.05,,,0.39,meteohub,2013-12-29 15:54:00,
2013-12-29 10:57:00,39.4,39.2,29.95,East,90,4.0,7.0,99,0.06,,,0.40,meteohub,2013-12-29 15:57:00,
2013-12-29 10:58:00,39.6,39.4,29.95,East,90,4.0,7.0,99,0.06,,,0.40,meteohub,2013-12-29 15:58:00,
2013-12-29 10:59:00,39.6,39.4,29.95,East,90,6.0,7.0,99,0.06,,,0.40,meteohub,2013-12-29 15:59:00,
2013-12-29 11:01:00,39.6,39.4,29.94,East,90,6.0,8.0,99,0.05,,,0.40,meteohub,2013-12-29 16:01:00,
2013-12-29 11:02:00,39.6,39.4,29.94,East,90,4.0,8.0,99,0.05,,,0.40,meteohub,2013-12-29 16:02:00,
2013-12-29 11:03:00,39.6,39.4,29.94,East,90,4.0,8.0,99,0.05,,,0.40,meteohub,2013-12-29 16:03:00,
2013-12-29 11:05:00,39.7,39.6,29.95,East,90,3.0,8.0,99,0.05,,,0.40,meteohub,2013-12-29 16:05:00,
2013-12-29 11:06:00,39.7,39.6,29.94,East,90,4.0,8.0,99,0.05,,,0.40,meteohub,2013-12-29 16:06:00,
2013-12-29 11:08:00,39.7,39.6,29.95,East,90,4.0,8.0,99,0.05,,,0.40,meteohub,2013-12-29 16:08:00,
2013-12-29 11:09:00,39.7,39.6,29.94,SE,135,4.0,8.0,99,0.05,,,0.40,meteohub,2013-12-29 16:09:00,
2013-12-29 11:10:00,39.6,39.4,29.94,East,90,4.0,8.0,99,0.04,,,0.40,meteohub,2013-12-29 16:10:00,
2013-12-29 11:11:00,39.6,39.4,29.94,SE,135,4.0,8.0,99,0.04,,,0.40,meteohub,2013-12-29 16:11:00,
2013-12-29 11:12:00,39.6,39.4,29.93,East,90,8.0,8.0,99,0.04,,,0.40,meteohub,2013-12-29 16:12:00,
2013-12-29 11:14:00,39.6,39.4,29.93,East,90,5.0,8.0,99,0.04,,,0.40,meteohub,2013-12-29 16:14:00,
2013-12-29 11:15:00,39.6,39.4,29.93,East,90,7.0,8.0,99,0.04,,,0.40,meteohub,2013-12-29 16:15:00,
2013-12-29 11:16:00,39.6,39.4,29.93,East,90,5.0,8.0,99,0.04,,,0.40,meteohub,2013-12-29 16:16:00,
2013-12-29 11:17:00,39.6,39.4,29.92,East,90,5.0,8.0,99,0.04,,,0.40,meteohub,2013-12-29 16:17:00,
2013-12-29 11:19:00,39.6,39.4,29.92,East,90,4.0,8.0,99,0.04,,,0.40,meteohub,2013-12-29 16:19:00,
2013-12-29 11:20:00,39.6,39.4,29.92,East,90,8.0,8.0,99,0.04,,,0.41,meteohub,2013-12-29 16:20:00,
2013-12-29 11:21:00,39.6,39.4,29.92,NE,45,5.0,8.0,99,0.05,,,0.41,meteohub,2013-12-29 16:21:00,
2013-12-29 11:22:00,39.6,39.4,29.92,East,90,4.0,8.0,99,0.05,,,0.41,meteohub,2013-12-29 16:22:00,
2013-12-29 11:23:00,39.6,39.4,29.92,East,90,4.0,8.0,99,0.05,,,0.41,meteohub,2013-12-29 16:23:00,
2013-12-29 11:25:00,39.7,39.6,29.91,East,90,4.0,8.0,99,0.05,,,0.41,meteohub,2013-12-29 16:25:00,
2013-12-29 11:26:00,39.7,39.6,29.91,East,90,4.0,8.0,99,0.05,,,0.41,meteohub,2013-12-29 16:26:00,
2013-12-29 11:28:00,39.7,39.6,29.91,East,90,4.0,8.0,99,0.05,,,0.41,meteohub,2013-12-29 16:28:00,
2013-12-29 11:29:00,39.7,39.6,29.91,East,90,4.0,8.0,99,0.05,,,0.41,meteohub,2013-12-29 16:29:00,
2013-12-29 11:30:00,39.7,39.6,29.91,East,90,9.0,9.0,99,0.05,,,0.41,meteohub,2013-12-29 16:30:00,
2013-12-29 11:32:00,39.7,39.6,29.91,East,90,4.0,8.0,99,0.05,,,0.41,meteohub,2013-12-29 16:32:00,
2013-12-29 11:33:00,39.7,39.6,29.91,East,90,4.0,8.0,99,0.05,,,0.41,meteohub,2013-12-29 16:33:00,
2013-12-29 11:34:00,39.9,39.7,29.91,East,90,6.0,8.0,99,0.05,,,0.41,meteohub,2013-12-29 16:34:00,
2013-12-29 11:36:00,39.9,39.7,29.91,East,90,4.0,9.0,99,0.05,,,0.43,meteohub,2013-12-29 16:36:00,
2013-12-29 11:37:00,39.9,39.7,29.91,East,90,4.0,9.0,99,0.05,,,0.43,meteohub,2013-12-29 16:37:00,
2013-12-29 11:38:00,39.9,39.7,29.91,East,90,7.0,9.0,99,0.05,,,0.43,meteohub,2013-12-29 16:38:00,
2013-12-29 11:40:00,39.9,39.7,29.90,East,90,7.0,9.0,99,0.05,,,0.43,meteohub,2013-12-29 16:40:00,
2013-12-29 11:41:00,39.7,39.6,29.90,East,90,3.0,9.0,99,0.05,,,0.43,meteohub,2013-12-29 16:41:00,
2013-12-29 11:42:00,39.9,39.7,29.89,NE,45,6.0,9.0,99,0.05,,,0.43,meteohub,2013-12-29 16:42:00,
2013-12-29 11:44:00,39.7,39.6,29.89,East,90,5.0,9.0,99,0.05,,,0.43,meteohub,2013-12-29 16:44:00,
2013-12-29 11:46:00,39.9,39.7,29.89,NE,45,3.0,9.0,99,0.04,,,0.43,meteohub,2013-12-29 16:46:00,
2013-12-29 11:47:00,39.9,39.7,29.89,NE,45,3.0,9.0,99,0.04,,,0.43,meteohub,2013-12-29 16:47:00,
2013-12-29 11:48:00,39.9,39.7,29.89,NE,45,3.0,9.0,99,0.04,,,0.43,meteohub,2013-12-29 16:48:00,
2013-12-29 11:49:00,39.9,39.7,29.89,SE,135,5.0,9.0,99,0.04,,,0.43,meteohub,2013-12-29 16:49:00,
2013-12-29 11:50:00,39.9,39.7,29.89,SE,135,5.0,9.0,99,0.04,,,0.43,meteohub,2013-12-29 16:50:00,
2013-12-29 11:52:00,39.7,39.6,29.88,East,90,3.0,9.0,99,0.04,,,0.43,meteohub,2013-12-29 16:52:00,
2013-12-29 11:54:00,39.9,39.7,29.88,East,90,4.0,9.0,99,0.04,,,0.43,meteohub,2013-12-29 16:54:00,
2013-12-29 11:55:00,39.9,39.7,29.87,East,90,4.0,8.0,99,0.02,,,0.43,meteohub,2013-12-29 16:55:00,
2013-12-29 11:57:00,39.9,39.7,29.87,East,90,4.0,8.0,99,0.02,,,0.43,meteohub,2013-12-29 16:57:00,
2013-12-29 12:01:00,39.7,39.6,29.88,East,90,7.0,8.0,99,0.02,,,0.43,meteohub,2013-12-29 17:01:00,
2013-12-29 12:02:00,39.9,39.7,29.88,NE,45,4.0,8.0,99,0.02,,,0.43,meteohub,2013-12-29 17:02:00,
2013-12-29 12:04:00,39.9,39.7,29.88,SE,135,5.0,8.0,99,0.02,,,0.43,meteohub,2013-12-29 17:04:00,
2013-12-29 12:07:00,39.9,39.7,29.87,SE,135,4.0,8.0,99,0.04,,,0.43,meteohub,2013-12-29 17:07:00,
2013-12-29 12:08:00,39.9,39.7,29.87,East,90,8.0,8.0,99,0.04,,,0.43,meteohub,2013-12-29 17:08:00,
2013-12-29 12:09:00,39.9,39.7,29.86,East,90,6.0,8.0,99,0.04,,,0.43,meteohub,2013-12-29 17:09:00,
2013-12-29 12:11:00,39.9,39.7,29.86,East,90,4.0,8.0,99,0.04,,,0.44,meteohub,2013-12-29 17:11:00,
2013-12-29 12:12:00,39.9,39.7,29.86,East,90,5.0,8.0,99,0.04,,,0.44,meteohub,2013-12-29 17:12:00,
2013-12-29 12:13:00,39.9,39.7,29.85,East,90,6.0,8.0,99,0.04,,,0.44,meteohub,2013-12-29 17:13:00,
2013-12-29 12:14:00,39.9,39.7,29.85,SE,135,4.0,8.0,99,0.04,,,0.44,meteohub,2013-12-29 17:14:00,
2013-12-29 12:16:00,39.9,39.7,29.86,East,90,4.0,8.0,99,0.02,,,0.44,meteohub,2013-12-29 17:16:00,
2013-12-29 12:18:00,39.9,39.7,29.86,East,90,4.0,8.0,99,0.02,,,0.44,meteohub,2013-12-29 17:18:00,
2013-12-29 12:19:00,39.9,39.7,29.85,East,90,4.0,8.0,99,0.02,,,0.44,meteohub,2013-12-29 17:19:00,
2013-12-29 12:22:00,39.9,39.7,29.85,East,90,7.0,8.0,99,0.02,,,0.44,meteohub,2013-12-29 17:22:00,
2013-12-29 12:23:00,39.9,39.7,29.85,SE,135,4.0,8.0,99,0.02,,,0.44,meteohub,2013-12-29 17:23:00,
2013-12-29 12:24:00,39.9,39.7,29.84,East,90,10.0,10.0,99,0.02,,,0.44,meteohub,2013-12-29 17:24:00,
2013-12-29 12:25:00,39.9,39.7,29.84,East,90,7.0,8.0,99,0.02,,,0.44,meteohub,2013-12-29 17:25:00,
2013-12-29 12:28:00,39.9,39.7,29.84,East,90,5.0,11.0,99,0.02,,,0.44,meteohub,2013-12-29 17:28:00,
2013-12-29 12:29:00,39.9,39.7,29.84,ESE,113,4.0,11.0,99,0.02,,,0.44,meteohub,2013-12-29 17:29:00,
2013-12-29 12:30:00,39.9,39.7,29.84,SE,135,6.0,11.0,99,0.02,,,0.44,meteohub,2013-12-29 17:30:00,
2013-12-29 12:32:00,40.1,39.9,29.84,East,90,3.0,11.0,99,0.02,,,0.44,meteohub,2013-12-29 17:32:00,
2013-12-29 12:33:00,40.1,39.9,29.84,SE,135,4.0,11.0,99,0.02,,,0.44,meteohub,2013-12-29 17:33:00,
2013-12-29 12:34:00,40.1,39.9,29.84,SE,135,4.0,11.0,99,0.02,,,0.44,meteohub,2013-12-29 17:34:00,
2013-12-29 12:35:00,40.1,39.9,29.84,East,90,4.0,11.0,99,0.02,,,0.44,meteohub,2013-12-29 17:35:00,
2013-12-29 12:37:00,40.1,39.9,29.84,SE,135,4.0,11.0,99,0.01,,,0.44,meteohub,2013-12-29 17:37:00,
2013-12-29 12:39:00,40.1,39.9,29.83,SE,135,3.0,11.0,99,0.01,,,0.44,meteohub,2013-12-29 17:39:00,
2013-12-29 12:41:00,40.1,39.9,29.84,East,90,6.0,9.0,99,0.02,,,0.45,meteohub,2013-12-29 17:41:00,
2013-12-29 12:43:00,39.9,39.7,29.83,East,90,7.0,9.0,99,0.02,,,0.45,meteohub,2013-12-29 17:43:00,
2013-12-29 12:46:00,39.9,39.7,29.83,East,90,6.0,9.0,99,0.02,,,0.45,meteohub,2013-12-29 17:46:00,
2013-12-29 12:47:00,39.9,39.7,29.83,East,90,4.0,9.0,99,0.02,,,0.45,meteohub,2013-12-29 17:47:00,
2013-12-29 12:48:00,39.9,39.7,29.83,East,90,4.0,9.0,99,0.02,,,0.45,meteohub,2013-12-29 17:48:00,
2013-12-29 12:49:00,39.9,39.7,29.83,East,90,6.0,9.0,99,0.02,,,0.45,meteohub,2013-12-29 17:49:00,
2013-12-29 12:50:00,39.9,39.7,29.83,East,90,6.0,9.0,99,0.02,,,0.45,meteohub,2013-12-29 17:50:00,
2013-12-29 12:52:00,39.9,39.7,29.82,East,90,8.0,9.0,99,0.02,,,0.45,meteohub,2013-12-29 17:52:00,
2013-12-29 12:54:00,39.9,39.7,29.82,SE,135,6.0,9.0,99,0.02,,,0.45,meteohub,2013-12-29 17:54:00,
2013-12-29 12:55:00,39.9,39.7,29.83,NE,45,3.0,9.0,99,0.02,,,0.45,meteohub,2013-12-29 17:55:00,
2013-12-29 12:56:00,39.9,39.7,29.83,SE,135,3.0,9.0,99,0.02,,,0.45,meteohub,2013-12-29 17:56:00,
2013-12-29 12:58:00,39.9,39.7,29.82,East,90,7.0,9.0,99,0.02,,,0.45,meteohub,2013-12-29 17:58:00,
2013-12-29 12:59:00,39.9,39.7,29.83,East,90,6.0,9.0,99,0.02,,,0.45,meteohub,2013-12-29 17:59:00,
2013-12-29 13:01:00,39.9,39.7,29.83,East,90,5.0,8.0,99,0.04,,,0.46,meteohub,2013-12-29 18:01:00,
2013-12-29 13:03:00,39.9,39.7,29.83,East,90,4.0,8.0,99,0.04,,,0.46,meteohub,2013-12-29 18:03:00,
2013-12-29 13:04:00,39.9,39.7,29.83,SE,135,3.0,8.0,99,0.04,,,0.46,meteohub,2013-12-29 18:04:00,
2013-12-29 13:05:00,39.9,39.7,29.83,SE,135,4.0,8.0,99,0.04,,,0.46,meteohub,2013-12-29 18:05:00,
2013-12-29 13:07:00,39.9,39.7,29.83,SE,135,2.0,8.0,99,0.02,,,0.46,meteohub,2013-12-29 18:07:00,
2013-12-29 13:08:00,39.9,39.7,29.83,SE,135,2.0,8.0,99,0.02,,,0.46,meteohub,2013-12-29 18:08:00,
2013-12-29 13:09:00,39.9,39.7,29.83,East,90,3.0,8.0,99,0.02,,,0.46,meteohub,2013-12-29 18:09:00,
2013-12-29 13:10:00,39.9,39.7,29.82,NE,45,4.0,8.0,99,0.02,,,0.46,meteohub,2013-12-29 18:10:00,
2013-12-29 13:13:00,39.7,39.6,29.83,SE,135,4.0,7.0,99,0.04,,,0.47,meteohub,2013-12-29 18:13:00,
2013-12-29 13:14:00,39.7,39.6,29.82,SE,135,4.0,7.0,99,0.04,,,0.47,meteohub,2013-12-29 18:14:00,
2013-12-29 13:15:00,39.7,39.6,29.83,South,180,3.0,7.0,99,0.04,,,0.47,meteohub,2013-12-29 18:15:00,
2013-12-29 13:16:00,39.7,39.6,29.82,East,90,2.0,6.0,99,0.04,,,0.47,meteohub,2013-12-29 18:16:00,
2013-12-29 13:18:00,39.7,39.6,29.82,SE,135,4.0,6.0,99,0.04,,,0.47,meteohub,2013-12-29 18:18:00,
2013-12-29 13:19:00,39.7,39.6,29.82,SE,135,2.0,6.0,99,0.04,,,0.47,meteohub,2013-12-29 18:19:00,
2013-12-29 13:21:00,39.7,39.6,29.82,SE,135,4.0,5.0,99,0.05,,,0.48,meteohub,2013-12-29 18:21:00,
2013-12-29 13:23:00,39.7,39.6,29.83,East,90,3.0,5.0,99,0.05,,,0.48,meteohub,2013-12-29 18:23:00,
2013-12-29 13:25:00,39.7,39.6,29.83,East,90,2.0,5.0,99,0.06,,,0.50,meteohub,2013-12-29 18:25:00,
2013-12-29 13:26:00,39.7,39.6,29.83,East,90,2.0,5.0,99,0.06,,,0.50,meteohub,2013-12-29 18:26:00,
2013-12-29 13:27:00,39.7,39.6,29.82,South,180,2.0,5.0,99,0.06,,,0.50,meteohub,2013-12-29 18:27:00,
2013-12-29 13:29:00,39.7,39.6,29.83,South,180,0.0,5.0,99,0.06,,,0.50,meteohub,2013-12-29 18:29:00,
2013-12-29 13:30:00,39.7,39.6,29.83,East,90,4.0,4.0,99,0.06,,,0.50,meteohub,2013-12-29 18:30:00,
2013-12-29 13:32:00,39.7,39.6,29.83,East,90,2.0,4.0,99,0.06,,,0.50,meteohub,2013-12-29 18:32:00,
2013-12-29 13:33:00,39.7,39.6,29.83,East,90,2.0,4.0,99,0.06,,,0.50,meteohub,2013-12-29 18:33:00,
2013-12-29 13:34:00,39.7,39.6,29.83,NE,45,3.0,4.0,99,0.06,,,0.50,meteohub,2013-12-29 18:34:00,
2013-12-29 13:35:00,39.7,39.6,29.82,East,90,3.0,4.0,99,0.06,,,0.50,meteohub,2013-12-29 18:35:00,
2013-12-29 13:36:00,39.7,39.6,29.83,East,90,3.0,4.0,99,0.06,,,0.50,meteohub,2013-12-29 18:36:00,
2013-12-29 13:37:00,39.7,39.6,29.83,NE,45,2.0,4.0,99,0.06,,,0.50,meteohub,2013-12-29 18:37:00,
2013-12-29 13:38:00,30.2,30.0,29.83,WNW,293,4.0,4.0,99,0.06,,,0.50,meteohub,2013-12-29 18:38:00,
2013-12-29 13:39:00,39.7,39.6,29.83,North,0,4.0,4.0,99,0.06,,,0.50,meteohub,2013-12-29 18:39:00,
2013-12-29 13:40:00,39.7,39.6,29.83,North,0,2.0,4.0,99,0.06,,,0.51,meteohub,2013-12-29 18:40:00,
2013-12-29 13:41:00,39.7,39.6,29.83,NW,315,2.0,4.0,99,0.06,,,0.51,meteohub,2013-12-29 18:41:00,
2013-12-29 13:44:00,39.7,39.6,29.83,North,0,0.0,4.0,99,0.06,,,0.51,meteohub,2013-12-29 18:44:00,
2013-12-29 13:45:00,39.9,39.7,29.83,North,0,2.0,4.0,99,0.07,,,0.52,meteohub,2013-12-29 18:45:00,
2013-12-29 13:46:00,39.7,39.6,29.83,North,0,2.0,4.0,99,0.07,,,0.52,meteohub,2013-12-29 18:46:00,
2013-12-29 13:48:00,39.7,39.6,29.83,North,0,1.0,4.0,99,0.07,,,0.52,meteohub,2013-12-29 18:48:00,
2013-12-29 13:49:00,39.9,39.7,29.83,North,0,1.0,4.0,99,0.07,,,0.52,meteohub,2013-12-29 18:49:00,
2013-12-29 13:50:00,39.9,39.7,29.83,North,0,1.0,4.0,99,0.07,,,0.52,meteohub,2013-12-29 18:50:00,
2013-12-29 13:51:00,39.9,39.7,29.83,NW,315,2.0,4.0,99,0.07,,,0.52,meteohub,2013-12-29 18:51:00,
2013-12-29 13:52:00,39.9,39.7,29.83,NW,315,2.0,4.0,99,0.07,,,0.52,meteohub,2013-12-29 18:52:00,
2013-12-29 13:54:00,39.9,39.7,29.83,NW,315,2.0,4.0,99,0.07,,,0.52,meteohub,2013-12-29 18:54:00,
2013-12-29 13:55:00,39.9,39.7,29.83,North,0,2.0,4.0,99,0.07,,,0.52,meteohub,2013-12-29 18:55:00,
2013-12-29 13:56:00,39.9,39.7,29.83,North,0,1.0,2.0,99,0.07,,,0.53,meteohub,2013-12-29 18:56:00,
2013-12-29 13:57:00,39.9,39.7,29.84,NW,315,2.0,2.0,99,0.07,,,0.53,meteohub,2013-12-29 18:57:00,
2013-12-29 13:58:00,39.9,39.7,29.84,NW,315,2.0,2.0,99,0.07,,,0.53,meteohub,2013-12-29 18:58:00,
2013-12-29 14:01:00,39.9,39.7,29.84,North,0,2.0,2.0,99,0.07,,,0.53,meteohub,2013-12-29 19:01:00,
2013-12-29 14:02:00,39.9,39.7,29.84,North,0,2.0,2.0,99,0.07,,,0.53,meteohub,2013-12-29 19:02:00,
2013-12-29 14:03:00,39.9,39.7,29.84,North,0,2.0,2.0,99,0.07,,,0.53,meteohub,2013-12-29 19:03:00,
2013-12-29 14:07:00,39.9,39.7,29.84,NW,315,2.0,2.0,99,0.08,,,0.54,meteohub,2013-12-29 19:07:00,
2013-12-29 14:08:00,39.9,39.7,29.84,NW,315,2.0,2.0,99,0.08,,,0.54,meteohub,2013-12-29 19:08:00,
2013-12-29 14:09:00,39.9,39.7,29.84,NW,315,1.0,2.0,99,0.08,,,0.54,meteohub,2013-12-29 19:09:00,
2013-12-29 14:10:00,39.9,39.7,29.84,NW,315,2.0,2.0,99,0.08,,,0.56,meteohub,2013-12-29 19:10:00,
2013-12-29 14:12:00,39.9,39.7,29.83,North,0,2.0,2.0,99,0.08,,,0.56,meteohub,2013-12-29 19:12:00,
2013-12-29 14:14:00,39.7,39.6,29.84,North,0,2.0,2.0,99,0.08,,,0.56,meteohub,2013-12-29 19:14:00,
2013-12-29 14:15:00,39.7,39.6,29.84,North,0,2.0,4.0,99,0.07,,,0.56,meteohub,2013-12-29 19:15:00,
2013-12-29 14:16:00,39.7,39.6,29.84,North,0,2.0,4.0,99,0.07,,,0.56,meteohub,2013-12-29 19:16:00,
2013-12-29 14:19:00,39.7,39.6,29.84,North,0,2.0,4.0,99,0.07,,,0.56,meteohub,2013-12-29 19:19:00,
2013-12-29 14:20:00,39.7,39.6,29.84,North,0,4.0,4.0,99,0.07,,,0.56,meteohub,2013-12-29 19:20:00,
2013-12-29 14:21:00,39.7,39.6,29.83,NW,315,2.0,4.0,99,0.09,,,0.58,meteohub,2013-12-29 19:21:00,
2013-12-29 14:22:00,39.7,39.6,29.84,West,270,7.0,7.0,99,0.09,,,0.58,meteohub,2013-12-29 19:22:00,
2013-12-29 14:25:00,39.6,39.4,29.83,NW,315,4.0,4.0,99,0.09,,,0.58,meteohub,2013-12-29 19:25:00,
2013-12-29 14:26:00,39.4,39.2,29.83,NW,315,4.0,7.0,99,0.08,,,0.58,meteohub,2013-12-29 19:26:00,
2013-12-29 14:27:00,39.4,39.2,29.83,NW,315,4.0,7.0,99,0.08,,,0.58,meteohub,2013-12-29 19:27:00,
2013-12-29 14:28:00,39.4,39.2,29.83,West,270,2.0,7.0,99,0.08,,,0.58,meteohub,2013-12-29 19:28:00,
2013-12-29 14:29:00,39.4,39.2,29.83,West,270,2.0,7.0,99,0.08,,,0.58,meteohub,2013-12-29 19:29:00,
2013-12-29 14:30:00,39.2,39.0,29.83,North,0,3.0,7.0,99,0.08,,,0.58,meteohub,2013-12-29 19:30:00,
2013-12-29 14:31:00,39.2,39.0,29.83,West,270,3.0,7.0,99,0.08,,,0.58,meteohub,2013-12-29 19:31:00,
2013-12-29 14:33:00,39.2,39.0,29.83,NW,315,4.0,7.0,99,0.08,,,0.58,meteohub,2013-12-29 19:33:00,
2013-12-29 14:34:00,39.2,39.0,29.83,West,270,2.0,7.0,99,0.08,,,0.58,meteohub,2013-12-29 19:34:00,
2013-12-29 14:35:00,39.0,38.8,29.83,NW,315,2.0,7.0,99,0.08,,,0.58,meteohub,2013-12-29 19:35:00,
2013-12-29 14:36:00,39.0,38.8,29.83,NE,45,2.0,7.0,99,0.08,,,0.59,meteohub,2013-12-29 19:36:00,
2013-12-29 14:38:00,39.0,38.8,29.83,NNW,338,4.0,7.0,99,0.08,,,0.59,meteohub,2013-12-29 19:38:00,
2013-12-29 14:39:00,39.0,38.8,29.83,NNW,338,4.0,7.0,99,0.08,,,0.59,meteohub,2013-12-29 19:39:00,
2013-12-29 14:40:00,38.8,38.7,29.83,North,0,4.0,4.0,99,0.08,,,0.59,meteohub,2013-12-29 19:40:00,
2013-12-29 14:41:00,36.3,36.1,29.83,NE,45,7.0,7.0,99,0.08,,,0.59,meteohub,2013-12-29 19:41:00,
2013-12-29 14:42:00,36.3,36.1,29.83,NE,45,7.0,7.0,99,0.08,,,0.59,meteohub,2013-12-29 19:42:00,
2013-12-29 14:43:00,38.7,38.5,29.83,North,0,8.0,8.0,99,0.08,,,0.59,meteohub,2013-12-29 19:43:00,
2013-12-29 14:44:00,38.7,38.5,29.83,North,0,5.0,5.0,99,0.08,,,0.59,meteohub,2013-12-29 19:44:00,
2013-12-29 14:45:00,38.7,38.5,29.83,North,0,5.0,5.0,99,0.08,,,0.60,meteohub,2013-12-29 19:45:00,
2013-12-29 14:49:00,38.5,38.3,29.83,North,0,2.0,8.0,99,0.08,,,0.60,meteohub,2013-12-29 19:49:00,
2013-12-29 14:50:00,38.5,38.3,29.83,North,0,6.0,8.0,99,0.08,,,0.60,meteohub,2013-12-29 19:50:00,
2013-12-29 14:51:00,38.5,38.3,29.83,North,0,4.0,8.0,99,0.07,,,0.60,meteohub,2013-12-29 19:51:00,
2013-12-29 14:52:00,38.5,38.3,29.83,North,0,4.0,8.0,99,0.07,,,0.60,meteohub,2013-12-29 19:52:00,
2013-12-29 14:53:00,38.5,38.3,29.83,NW,315,4.0,8.0,99,0.07,,,0.60,meteohub,2013-12-29 19:53:00,
2013-12-29 14:55:00,38.3,38.1,29.83,West,270,3.0,8.0,99,0.07,,,0.61,meteohub,2013-12-29 19:55:00,
2013-12-29 14:57:00,38.1,37.9,29.83,West,270,2.0,8.0,99,0.08,,,0.61,meteohub,2013-12-29 19:57:00,
2013-12-29 14:59:00,38.1,37.9,29.83,West,270,2.0,8.0,99,0.08,,,0.61,meteohub,2013-12-29 19:59:00,
2013-12-29 15:00:00,38.1,37.9,29.83,NW,315,7.0,8.0,99,0.08,,,0.61,meteohub,2013-12-29 20:00:00,
2013-12-29 15:01:00,38.1,37.9,29.83,West,270,5.0,6.0,99,0.07,,,0.61,meteohub,2013-12-29 20:01:00,
2013-12-29 15:04:00,37.9,37.8,29.83,North,0,4.0,6.0,99,0.07,,,0.61,meteohub,2013-12-29 20:04:00,
2013-12-29 15:05:00,37.9,37.8,29.83,East,90,3.0,6.0,99,0.07,,,0.63,meteohub,2013-12-29 20:05:00,
2013-12-29 15:06:00,37.9,37.8,29.83,North,0,2.0,7.0,99,0.08,,,0.63,meteohub,2013-12-29 20:06:00,
2013-12-29 15:07:00,37.9,37.8,29.83,North,0,2.0,7.0,99,0.08,,,0.63,meteohub,2013-12-29 20:07:00,
2013-12-29 15:10:00,37.6,37.4,29.83,NE,45,7.0,7.0,99,0.07,,,0.63,meteohub,2013-12-29 20:10:00,
2013-12-29 15:11:00,37.6,37.4,29.83,NE,45,7.0,7.0,99,0.07,,,0.63,meteohub,2013-12-29 20:11:00,
2013-12-29 15:12:00,37.4,37.2,29.83,NW,315,7.0,7.0,99,0.07,,,0.63,meteohub,2013-12-29 20:12:00,
2013-12-29 15:13:00,37.4,37.2,29.84,NW,315,4.0,7.0,99,0.07,,,0.63,meteohub,2013-12-29 20:13:00,
2013-12-29 15:15:00,37.4,37.2,29.84,NW,315,6.0,8.0,99,0.07,,,0.63,meteohub,2013-12-29 20:15:00,
2013-12-29 15:17:00,37.2,37.0,29.84,North,0,4.0,8.0,99,0.07,,,0.63,meteohub,2013-12-29 20:17:00,
2013-12-29 15:18:00,37.2,37.0,29.84,North,0,4.0,8.0,99,0.07,,,0.63,meteohub,2013-12-29 20:18:00,
2013-12-29 15:21:00,37.2,37.0,29.84,North,0,8.0,8.0,99,0.05,,,0.63,meteohub,2013-12-29 20:21:00,
2013-12-29 15:22:00,37.2,37.0,29.84,WSW,248,4.0,8.0,99,0.05,,,0.63,meteohub,2013-12-29 20:22:00,
2013-12-29 15:23:00,37.2,37.0,29.84,NW,315,4.0,8.0,99,0.05,,,0.63,meteohub,2013-12-29 20:23:00,
2013-12-29 15:24:00,37.2,37.0,29.84,NW,315,8.0,8.0,99,0.05,,,0.63,meteohub,2013-12-29 20:24:00,
2013-12-29 15:26:00,37.2,37.0,29.84,NW,315,4.0,8.0,99,0.06,,,0.64,meteohub,2013-12-29 20:26:00,
2013-12-29 15:28:00,37.2,37.0,29.84,North,0,8.0,8.0,99,0.06,,,0.64,meteohub,2013-12-29 20:28:00,
2013-12-29 15:29:00,37.2,37.0,29.84,West,270,9.0,9.0,99,0.06,,,0.64,meteohub,2013-12-29 20:29:00,
2013-12-29 15:30:00,37.2,37.0,29.84,NW,315,4.0,8.0,99,0.06,,,0.64,meteohub,2013-12-29 20:30:00,
2013-12-29 15:31:00,37.2,37.0,29.85,North,0,2.0,9.0,99,0.05,,,0.64,meteohub,2013-12-29 20:31:00,
2013-12-29 15:33:00,37.0,36.9,29.84,North,0,8.0,9.0,99,0.05,,,0.64,meteohub,2013-12-29 20:33:00,
2013-12-29 15:34:00,37.0,36.9,29.84,North,0,8.0,9.0,99,0.05,,,0.64,meteohub,2013-12-29 20:34:00,
2013-12-29 15:35:00,37.0,36.9,29.84,North,0,3.0,9.0,99,0.05,,,0.64,meteohub,2013-12-29 20:35:00,
2013-12-29 15:39:00,37.0,36.9,29.84,NE,45,5.0,9.0,99,0.05,,,0.64,meteohub,2013-12-29 20:39:00,
2013-12-29 15:40:00,37.0,36.9,29.84,NW,315,6.0,9.0,99,0.05,,,0.64,meteohub,2013-12-29 20:40:00,
2013-12-29 15:42:00,37.0,36.9,29.85,NW,315,2.0,11.0,99,0.05,,,0.65,meteohub,2013-12-29 20:42:00,
2013-12-29 15:44:00,36.9,36.7,29.85,NW,315,6.0,11.0,99,0.05,,,0.65,meteohub,2013-12-29 20:44:00,
2013-12-29 15:45:00,36.9,36.7,29.85,West,270,8.0,11.0,99,0.05,,,0.65,meteohub,2013-12-29 20:45:00,
2013-12-29 15:49:00,36.9,36.7,29.86,NE,45,4.0,11.0,99,0.05,,,0.65,meteohub,2013-12-29 20:49:00,
2013-12-29 15:50:00,36.9,36.7,29.85,North,0,5.0,11.0,99,0.05,,,0.65,meteohub,2013-12-29 20:50:00,
2013-12-29 15:51:00,36.7,36.5,29.85,North,0,5.0,11.0,99,0.05,,,0.65,meteohub,2013-12-29 20:51:00,
2013-12-29 15:54:00,36.9,36.7,29.85,NW,315,3.0,11.0,99,0.05,,,0.65,meteohub,2013-12-29 20:54:00,
2013-12-29 15:55:00,36.9,36.7,29.85,NW,315,9.0,11.0,99,0.04,,,0.65,meteohub,2013-12-29 20:55:00,
2013-12-29 15:56:00,36.9,36.7,29.85,West,270,4.0,9.0,99,0.04,,,0.65,meteohub,2013-12-29 20:56:00,
2013-12-29 15:57:00,36.9,36.7,29.85,SE,135,7.0,9.0,99,0.04,,,0.65,meteohub,2013-12-29 20:57:00,
2013-12-29 15:58:00,36.9,36.7,29.85,North,0,6.0,9.0,99,0.04,,,0.65,meteohub,2013-12-29 20:58:00,
2013-12-29 16:00:00,36.9,36.7,29.85,NE,45,8.0,9.0,99,0.04,,,0.65,meteohub,2013-12-29 21:00:00,
2013-12-29 16:02:00,36.7,36.5,29.85,NW,315,4.0,9.0,99,0.04,,,0.65,meteohub,2013-12-29 21:02:00,
2013-12-29 16:03:00,36.7,36.5,29.85,NW,315,4.0,9.0,99,0.04,,,0.65,meteohub,2013-12-29 21:03:00,
2013-12-29 16:04:00,36.7,36.5,29.85,North,0,4.0,9.0,99,0.04,,,0.65,meteohub,2013-12-29 21:04:00,
2013-12-29 16:05:00,36.7,36.5,29.85,NE,45,4.0,9.0,99,0.04,,,0.65,meteohub,2013-12-29 21:05:00,
2013-12-29 16:07:00,36.7,36.5,29.85,West,270,6.0,9.0,99,0.02,,,0.65,meteohub,2013-12-29 21:07:00,
2013-12-29 16:08:00,36.7,36.5,29.85,North,0,8.0,9.0,99,0.02,,,0.65,meteohub,2013-12-29 21:08:00,
2013-12-29 16:10:00,36.5,36.3,29.86,NW,315,3.0,9.0,99,0.02,,,0.65,meteohub,2013-12-29 21:10:00,
2013-12-29 16:11:00,36.7,36.5,29.86,North,0,4.0,9.0,99,0.02,,,0.65,meteohub,2013-12-29 21:11:00,
2013-12-29 16:13:00,36.7,36.5,29.86,NW,315,3.0,9.0,99,0.02,,,0.65,meteohub,2013-12-29 21:13:00,
2013-12-29 16:14:00,36.7,36.5,29.86,NNW,338,7.0,9.0,99,0.02,,,0.65,meteohub,2013-12-29 21:14:00,
2013-12-29 16:15:00,34.9,34.7,29.86,NW,315,7.0,8.0,99,0.02,,,0.65,meteohub,2013-12-29 21:15:00,
2013-12-29 16:16:00,34.9,34.7,29.86,NW,315,7.0,8.0,99,0.02,,,0.65,meteohub,2013-12-29 21:16:00,
2013-12-29 16:17:00,36.5,36.3,29.86,NW,315,8.0,8.0,99,0.02,,,0.65,meteohub,2013-12-29 21:17:00,
2013-12-29 16:19:00,36.5,36.3,29.86,North,0,6.0,8.0,99,0.02,,,0.65,meteohub,2013-12-29 21:19:00,
2013-12-29 16:21:00,36.5,36.3,29.86,NW,315,3.0,8.0,99,0.02,,,0.65,meteohub,2013-12-29 21:21:00,
2013-12-29 16:22:00,36.5,36.3,29.87,West,270,3.0,8.0,99,0.02,,,0.65,meteohub,2013-12-29 21:22:00,
2013-12-29 16:23:00,36.5,36.3,29.86,West,270,8.0,8.0,99,0.02,,,0.65,meteohub,2013-12-29 21:23:00,
2013-12-29 16:26:00,36.5,36.3,29.87,North,0,4.0,8.0,99,0.01,,,0.65,meteohub,2013-12-29 21:26:00,
2013-12-29 16:27:00,36.5,36.3,29.86,WSW,248,3.0,8.0,99,0.01,,,0.65,meteohub,2013-12-29 21:27:00,
2013-12-29 16:29:00,36.5,36.3,29.87,North,0,8.0,8.0,99,0.01,,,0.65,meteohub,2013-12-29 21:29:00,
2013-12-29 16:31:00,36.3,36.1,29.87,NW,315,4.0,8.0,99,0.01,,,0.65,meteohub,2013-12-29 21:31:00,
2013-12-29 16:33:00,36.3,36.1,29.87,NW,315,4.0,8.0,99,0.01,,,0.65,meteohub,2013-12-29 21:33:00,
2013-12-29 16:34:00,36.3,36.1,29.88,NW,315,3.0,8.0,99,0.01,,,0.65,meteohub,2013-12-29 21:34:00,
2013-12-29 16:35:00,36.3,36.1,29.87,North,0,4.0,8.0,99,0.01,,,0.66,meteohub,2013-12-29 21:35:00,
2013-12-29 16:36:00,36.3,36.1,29.87,North,0,7.0,11.0,99,0.01,,,0.66,meteohub,2013-12-29 21:36:00,
2013-12-29 16:39:00,36.3,36.1,29.87,NW,315,5.0,11.0,99,0.01,,,0.66,meteohub,2013-12-29 21:39:00,
2013-12-29 16:40:00,36.3,36.1,29.88,NW,315,4.0,11.0,99,0.01,,,0.66,meteohub,2013-12-29 21:40:00,
2013-12-29 16:41:00,36.3,36.1,29.88,NW,315,3.0,11.0,99,0.01,,,0.66,meteohub,2013-12-29 21:41:00,
2013-12-29 16:42:00,36.3,36.1,29.88,NW,315,2.0,11.0,99,0.01,,,0.66,meteohub,2013-12-29 21:42:00,
2013-12-29 16:44:00,36.1,36.0,29.88,NW,315,8.0,11.0,99,0.01,,,0.66,meteohub,2013-12-29 21:44:00,
2013-12-29 16:45:00,36.1,36.0,29.88,NW,315,3.0,11.0,99,0.01,,,0.66,meteohub,2013-12-29 21:45:00,
2013-12-29 16:46:00,36.1,36.0,29.88,NW,315,3.0,11.0,99,0.01,,,0.66,meteohub,2013-12-29 21:46:00,
2013-12-29 16:47:00,36.1,36.0,29.88,West,270,2.0,11.0,99,0.01,,,0.66,meteohub,2013-12-29 21:47:00,
2013-12-29 16:48:00,36.1,36.0,29.88,West,270,2.0,11.0,99,0.01,,,0.66,meteohub,2013-12-29 21:48:00,
2013-12-29 16:51:00,36.0,35.8,29.88,NW,315,5.0,8.0,99,0.01,,,0.66,meteohub,2013-12-29 21:51:00,
2013-12-29 16:52:00,36.0,35.8,29.88,North,0,3.0,8.0,99,0.01,,,0.66,meteohub,2013-12-29 21:52:00,
2013-12-29 16:56:00,36.0,35.8,29.88,NW,315,4.0,8.0,99,0.01,,,0.66,meteohub,2013-12-29 21:56:00,
2013-12-29 16:57:00,36.0,35.8,29.88,NW,315,6.0,8.0,99,0.01,,,0.66,meteohub,2013-12-29 21:57:00,
2013-12-29 17:00:00,35.8,35.6,29.89,North,0,5.0,8.0,99,0.01,,,0.66,meteohub,2013-12-29 22:00:00,
2013-12-29 17:02:00,35.8,35.6,29.89,NW,315,3.0,8.0,99,0.01,,,0.66,meteohub,2013-12-29 22:02:00,
2013-12-29 17:03:00,35.8,35.6,29.89,NW,315,3.0,8.0,99,0.01,,,0.66,meteohub,2013-12-29 22:03:00,
2013-12-29 17:05:00,35.8,35.6,29.89,NW,315,4.0,8.0,99,0.01,,,0.66,meteohub,2013-12-29 22:05:00,
2013-12-29 17:06:00,35.8,35.6,29.89,NW,315,4.0,8.0,99,0.01,,,0.66,meteohub,2013-12-29 22:06:00,
2013-12-29 17:07:00,35.8,35.6,29.90,NW,315,4.0,8.0,99,0.01,,,0.66,meteohub,2013-12-29 22:07:00,
2013-12-29 17:08:00,35.8,35.6,29.90,West,270,5.0,8.0,99,0.01,,,0.66,meteohub,2013-12-29 22:08:00,
2013-12-29 17:09:00,35.8,35.6,29.89,NW,315,4.0,8.0,99,0.01,,,0.66,meteohub,2013-12-29 22:09:00,
2013-12-29 17:12:00,35.8,35.6,29.90,West,270,4.0,8.0,99,0.01,,,0.66,meteohub,2013-12-29 22:12:00,
2013-12-29 17:13:00,35.8,35.6,29.90,West,270,4.0,8.0,99,0.01,,,0.66,meteohub,2013-12-29 22:13:00,
2013-12-29 17:14:00,35.8,35.6,29.90,West,270,3.0,8.0,99,0.01,,,0.66,meteohub,2013-12-29 22:14:00,
2013-12-29 17:16:00,35.8,35.6,29.90,NW,315,3.0,6.0,99,0.01,,,0.66,meteohub,2013-12-29 22:16:00,
2013-12-29 17:17:00,35.8,35.6,29.90,West,270,2.0,6.0,99,0.01,,,0.66,meteohub,2013-12-29 22:17:00,
2013-12-29 17:18:00,35.8,35.6,29.90,West,270,2.0,6.0,99,0.01,,,0.66,meteohub,2013-12-29 22:18:00,
2013-12-29 17:19:00,35.8,35.6,29.90,West,270,2.0,6.0,99,0.01,,,0.66,meteohub,2013-12-29 22:19:00,
2013-12-29 17:20:00,35.8,35.6,29.90,NW,315,4.0,6.0,99,0.02,,,0.67,meteohub,2013-12-29 22:20:00,
2013-12-29 17:21:00,35.8,35.6,29.90,West,270,3.0,6.0,99,0.02,,,0.67,meteohub,2013-12-29 22:21:00,
2013-12-29 17:23:00,35.8,35.6,29.90,NW,315,5.0,6.0,99,0.02,,,0.67,meteohub,2013-12-29 22:23:00,
2013-12-29 17:24:00,35.8,35.6,29.91,NW,315,2.0,6.0,99,0.02,,,0.67,meteohub,2013-12-29 22:24:00,
2013-12-29 17:25:00,35.8,35.6,29.90,NW,315,2.0,6.0,99,0.02,,,0.67,meteohub,2013-12-29 22:25:00,
2013-12-29 17:26:00,35.8,35.6,29.90,West,270,3.0,6.0,99,0.02,,,0.67,meteohub,2013-12-29 22:26:00,
2013-12-29 17:27:00,35.8,35.6,29.90,West,270,3.0,6.0,99,0.02,,,0.67,meteohub,2013-12-29 22:27:00,
2013-12-29 17:29:00,35.8,35.6,29.90,NW,315,5.0,6.0,99,0.02,,,0.67,meteohub,2013-12-29 22:29:00,
2013-12-29 17:30:00,35.8,35.6,29.90,NW,315,5.0,6.0,99,0.02,,,0.67,meteohub,2013-12-29 22:30:00,
2013-12-29 17:31:00,35.8,35.6,29.90,NW,315,10.0,10.0,99,0.02,,,0.67,meteohub,2013-12-29 22:31:00,
2013-12-29 17:32:00,35.8,35.6,29.90,North,0,7.0,7.0,99,0.02,,,0.67,meteohub,2013-12-29 22:32:00,
2013-12-29 17:33:00,35.8,35.6,29.90,West,270,3.0,6.0,99,0.02,,,0.67,meteohub,2013-12-29 22:33:00,
2013-12-29 17:35:00,35.8,35.6,29.91,North,0,2.0,6.0,99,0.02,,,0.67,meteohub,2013-12-29 22:35:00,
2013-12-29 17:36:00,35.8,35.6,29.91,NW,315,4.0,10.0,99,0.01,,,0.67,meteohub,2013-12-29 22:36:00,
2013-12-29 17:38:00,35.8,35.6,29.90,NW,315,7.0,10.0,99,0.01,,,0.67,meteohub,2013-12-29 22:38:00,
2013-12-29 17:40:00,35.8,35.6,29.90,NW,315,2.0,10.0,99,0.01,,,0.67,meteohub,2013-12-29 22:40:00,
2013-12-29 17:41:00,35.8,35.6,29.90,NW,315,3.0,10.0,99,0.01,,,0.67,meteohub,2013-12-29 22:41:00,
2013-12-29 17:42:00,35.8,35.6,29.90,NW,315,2.0,10.0,99,0.01,,,0.67,meteohub,2013-12-29 22:42:00,
2013-12-29 17:43:00,35.8,35.6,29.90,West,270,1.0,10.0,99,0.01,,,0.67,meteohub,2013-12-29 22:43:00,
2013-12-29 17:44:00,35.8,35.6,29.91,NW,315,2.0,10.0,99,0.01,,,0.67,meteohub,2013-12-29 22:44:00,
2013-12-29 17:45:00,35.8,35.6,29.91,North,0,4.0,10.0,99,0.01,,,0.67,meteohub,2013-12-29 22:45:00,
2013-12-29 17:47:00,35.8,35.6,29.91,WSW,248,2.0,10.0,99,0.01,,,0.67,meteohub,2013-12-29 22:47:00,
2013-12-29 17:48:00,35.8,35.6,29.91,SE,135,4.0,10.0,99,0.01,,,0.67,meteohub,2013-12-29 22:48:00,
2013-12-29 17:49:00,35.8,35.6,29.91,WSW,248,2.0,10.0,99,0.01,,,0.67,meteohub,2013-12-29 22:49:00,
2013-12-29 17:52:00,35.8,35.6,29.91,NW,315,3.0,7.0,99,0.01,,,0.67,meteohub,2013-12-29 22:52:00,
2013-12-29 17:53:00,35.8,35.6,29.92,West,270,2.0,7.0,99,0.01,,,0.67,meteohub,2013-12-29 22:53:00,
2013-12-29 17:54:00,35.8,35.6,29.91,West,270,4.0,7.0,99,0.01,,,0.67,meteohub,2013-12-29 22:54:00,
2013-12-29 17:55:00,35.8,35.6,29.92,West,270,3.0,7.0,99,0.01,,,0.67,meteohub,2013-12-29 22:55:00,
2013-12-29 17:57:00,36.0,35.8,29.92,NNW,338,2.0,7.0,99,0.01,,,0.67,meteohub,2013-12-29 22:57:00,
2013-12-29 17:59:00,36.0,35.8,29.92,West,270,2.0,7.0,99,0.01,,,0.67,meteohub,2013-12-29 22:59:00,
2013-12-29 18:00:00,36.0,35.8,29.91,West,270,6.0,7.0,99,0.01,,,0.67,meteohub,2013-12-29 23:00:00,
2013-12-29 18:01:00,36.0,35.8,29.92,West,270,5.0,5.0,99,0.01,,,0.67,meteohub,2013-12-29 23:01:00,
2013-12-29 18:02:00,36.0,35.8,29.92,NW,315,4.0,5.0,99,0.01,,,0.67,meteohub,2013-12-29 23:02:00,
2013-12-29 18:04:00,36.0,35.8,29.91,WSW,248,3.0,5.0,99,0.01,,,0.67,meteohub,2013-12-29 23:04:00,
2013-12-29 18:05:00,36.0,35.8,29.92,West,270,2.0,5.0,99,0.01,,,0.67,meteohub,2013-12-29 23:05:00,
2013-12-29 18:06:00,36.0,35.8,29.92,South,180,6.0,6.0,99,0.01,,,0.67,meteohub,2013-12-29 23:06:00,
2013-12-29 18:07:00,36.0,35.8,29.92,NW,315,3.0,6.0,99,0.01,,,0.67,meteohub,2013-12-29 23:07:00,
2013-12-29 18:09:00,36.1,36.0,29.92,West,270,4.0,6.0,99,0.01,,,0.67,meteohub,2013-12-29 23:09:00,
2013-12-29 18:10:00,36.1,36.0,29.92,West,270,7.0,7.0,99,0.01,,,0.67,meteohub,2013-12-29 23:10:00,
2013-12-29 18:12:00,36.1,36.0,29.92,West,270,4.0,6.0,99,0.01,,,0.67,meteohub,2013-12-29 23:12:00,
2013-12-29 18:13:00,36.1,36.0,29.92,West,270,2.0,6.0,99,0.01,,,0.67,meteohub,2013-12-29 23:13:00,
2013-12-29 18:14:00,36.1,36.0,29.92,WSW,248,3.0,6.0,99,0.01,,,0.67,meteohub,2013-12-29 23:14:00,
2013-12-29 18:16:00,36.1,36.0,29.93,NW,315,8.0,8.0,99,0.00,,,0.67,meteohub,2013-12-29 23:16:00,
2013-12-29 18:17:00,36.1,36.0,29.93,West,270,8.0,8.0,99,0.00,,,0.67,meteohub,2013-12-29 23:17:00,
2013-12-29 18:18:00,36.1,36.0,29.92,West,270,8.0,8.0,99,0.00,,,0.67,meteohub,2013-12-29 23:18:00,
2013-12-29 18:19:00,36.1,36.0,29.93,West,270,3.0,7.0,99,0.00,,,0.67,meteohub,2013-12-29 23:19:00,
2013-12-29 18:20:00,36.3,36.1,29.93,West,270,6.0,7.0,99,0.00,,,0.67,meteohub,2013-12-29 23:20:00,
2013-12-29 18:22:00,36.3,36.1,29.93,West,270,6.0,8.0,99,0.00,,,0.67,meteohub,2013-12-29 23:22:00,
2013-12-29 18:23:00,36.3,36.1,29.93,NW,315,5.0,8.0,99,0.00,,,0.67,meteohub,2013-12-29 23:23:00,
2013-12-29 18:24:00,36.3,36.1,29.93,NE,45,4.0,8.0,99,0.00,,,0.67,meteohub,2013-12-29 23:24:00,
2013-12-29 18:25:00,36.3,36.1,29.93,West,270,4.0,8.0,99,0.00,,,0.67,meteohub,2013-12-29 23:25:00,
2013-12-29 18:27:00,36.3,36.1,29.93,West,270,5.0,8.0,99,0.00,,,0.67,meteohub,2013-12-29 23:27:00,
2013-12-29 18:28:00,36.3,36.1,29.93,WSW,248,2.0,8.0,99,0.00,,,0.67,meteohub,2013-12-29 23:28:00,
2013-12-29 18:30:00,36.5,36.3,29.93,West,270,4.0,8.0,99,0.00,,,0.67,meteohub,2013-12-29 23:30:00,
2013-12-29 18:31:00,36.5,36.3,29.93,West,270,4.0,8.0,99,0.00,,,0.67,meteohub,2013-12-29 23:31:00,
2013-12-29 18:34:00,36.5,36.3,29.93,WSW,248,4.0,8.0,99,0.00,,,0.67,meteohub,2013-12-29 23:34:00,
2013-12-29 18:35:00,36.5,36.3,29.93,WSW,248,4.0,8.0,99,0.00,,,0.67,meteohub,2013-12-29 23:35:00,
2013-12-29 18:36:00,36.5,36.3,29.94,WSW,248,4.0,6.0,99,0.00,,,0.67,meteohub,2013-12-29 23:36:00,
2013-12-29 18:37:00,36.5,36.3,29.93,South,180,4.0,6.0,99,0.00,,,0.67,meteohub,2013-12-29 23:37:00,
2013-12-29 18:38:00,36.5,36.3,29.93,NW,315,5.0,6.0,99,0.00,,,0.67,meteohub,2013-12-29 23:38:00,
2013-12-29 18:39:00,36.5,36.3,29.93,West,270,6.0,6.0,99,0.00,,,0.67,meteohub,2013-12-29 23:39:00,
2013-12-29 18:41:00,36.5,36.3,29.93,West,270,4.0,6.0,99,0.00,,,0.67,meteohub,2013-12-29 23:41:00,
2013-12-29 18:42:00,36.5,36.3,29.93,WSW,248,3.0,6.0,99,0.00,,,0.67,meteohub,2013-12-29 23:42:00,
2013-12-29 18:44:00,36.5,36.3,29.94,WSW,248,4.0,6.0,99,0.00,,,0.67,meteohub,2013-12-29 23:44:00,
2013-12-29 18:46:00,36.5,36.3,29.94,WSW,248,2.0,6.0,99,0.00,,,0.67,meteohub,2013-12-29 23:46:00,
2013-12-29 18:47:00,36.5,36.3,29.94,WSW,248,3.0,6.0,99,0.00,,,0.67,meteohub,2013-12-29 23:47:00,
2013-12-29 18:49:00,36.7,36.5,29.94,WSW,248,5.0,6.0,99,0.00,,,0.67,meteohub,2013-12-29 23:49:00,
2013-12-29 18:51:00,36.7,36.5,29.94,West,270,8.0,8.0,99,0.00,,,0.67,meteohub,2013-12-29 23:51:00,
2013-12-29 18:52:00,36.7,36.5,29.94,West,270,5.0,6.0,99,0.00,,,0.67,meteohub,2013-12-29 23:52:00,
2013-12-29 18:53:00,36.7,36.5,29.94,WSW,248,2.0,6.0,99,0.00,,,0.67,meteohub,2013-12-29 23:53:00,
2013-12-29 18:54:00,36.7,36.5,29.94,West,270,4.0,6.0,99,0.00,,,0.67,meteohub,2013-12-29 23:54:00,
2013-12-29 18:55:00,36.7,36.5,29.94,NW,315,3.0,8.0,99,0.00,,,0.67,meteohub,2013-12-29 23:55:00,
2013-12-29 18:56:00,36.7,36.5,29.94,SE,135,5.0,8.0,99,0.00,,,0.67,meteohub,2013-12-29 23:56:00,
2013-12-29 18:57:00,36.7,36.5,29.94,WSW,248,7.0,8.0,99,0.00,,,0.67,meteohub,2013-12-29 23:57:00,
2013-12-29 18:58:00,36.7,36.5,29.94,West,270,4.0,8.0,99,0.00,,,0.67,meteohub,2013-12-29 23:58:00,
2013-12-29 19:00:00,36.7,36.5,29.94,South,180,4.0,8.0,99,0.00,,,0.67,meteohub,2013-12-30 00:00:00,
2013-12-29 19:01:00,36.7,36.5,29.94,WSW,248,5.0,8.0,99,0.00,,,0.67,meteohub,2013-12-30 00:01:00,
2013-12-29 19:02:00,36.7,36.5,29.94,WSW,248,5.0,8.0,99,0.00,,,0.67,meteohub,2013-12-30 00:02:00,
2013-12-29 19:03:00,36.7,36.5,29.94,South,180,2.0,8.0,99,0.00,,,0.67,meteohub,2013-12-30 00:03:00,
2013-12-29 19:05:00,36.9,36.7,29.94,West,270,4.0,8.0,99,0.00,,,0.67,meteohub,2013-12-30 00:05:00,
2013-12-29 19:06:00,36.9,36.7,29.94,West,270,4.0,8.0,99,0.00,,,0.67,meteohub,2013-12-30 00:06:00,
2013-12-29 19:07:00,36.9,36.7,29.94,South,180,2.0,8.0,99,0.00,,,0.67,meteohub,2013-12-30 00:07:00,
2013-12-29 19:08:00,36.9,36.7,29.94,West,270,4.0,8.0,99,0.00,,,0.67,meteohub,2013-12-30 00:08:00,
2013-12-29 19:11:00,36.9,36.7,29.94,WSW,248,4.0,7.0,99,0.00,,,0.67,meteohub,2013-12-30 00:11:00,
2013-12-29 19:12:00,36.9,36.7,29.94,WSW,248,3.0,7.0,99,0.00,,,0.67,meteohub,2013-12-30 00:12:00,
2013-12-29 19:13:00,36.9,36.7,29.94,NW,315,6.0,7.0,99,0.00,,,0.67,meteohub,2013-12-30 00:13:00,
2013-12-29 19:16:00,37.0,36.9,29.93,West,270,4.0,7.0,99,0.00,,,0.67,meteohub,2013-12-30 00:16:00,
2013-12-29 19:17:00,37.0,36.9,29.94,WSW,248,4.0,7.0,99,0.00,,,0.67,meteohub,2013-12-30 00:17:00,
2013-12-29 19:18:00,37.0,36.9,29.93,WSW,248,4.0,7.0,99,0.00,,,0.67,meteohub,2013-12-30 00:18:00,
2013-12-29 19:19:00,37.0,36.9,29.93,WSW,248,4.0,7.0,99,0.00,,,0.67,meteohub,2013-12-30 00:19:00,
2013-12-29 19:20:00,37.0,36.9,29.93,South,180,4.0,11.0,99,0.00,,,0.67,meteohub,2013-12-30 00:20:00,
2013-12-29 19:22:00,37.0,36.9,29.94,WSW,248,3.0,11.0,99,0.00,,,0.67,meteohub,2013-12-30 00:22:00,
2013-12-29 19:23:00,37.0,36.9,29.94,WSW,248,4.0,11.0,99,0.00,,,0.67,meteohub,2013-12-30 00:23:00,
2013-12-29 19:24:00,37.2,37.0,29.94,WSW,248,3.0,11.0,99,0.00,,,0.67,meteohub,2013-12-30 00:24:00,
2013-12-29 19:26:00,37.2,37.0,29.94,WSW,248,4.0,11.0,99,0.00,,,0.67,meteohub,2013-12-30 00:26:00,
2013-12-29 19:27:00,37.2,37.0,29.94,WSW,248,4.0,11.0,99,0.00,,,0.67,meteohub,2013-12-30 00:27:00,
2013-12-29 19:28:00,37.2,37.0,29.94,West,270,4.0,11.0,99,0.00,,,0.67,meteohub,2013-12-30 00:28:00,
2013-12-29 19:29:00,37.2,37.0,29.94,WSW,248,9.0,11.0,99,0.00,,,0.67,meteohub,2013-12-30 00:29:00,
2013-12-29 19:32:00,37.4,37.2,29.94,WSW,248,5.0,11.0,99,0.01,,,0.69,meteohub,2013-12-30 00:32:00,
2013-12-29 19:33:00,37.4,37.2,29.94,South,180,5.0,11.0,99,0.01,,,0.69,meteohub,2013-12-30 00:33:00,
2013-12-29 19:34:00,37.4,37.2,29.94,WSW,248,4.0,11.0,99,0.01,,,0.69,meteohub,2013-12-30 00:34:00,
2013-12-29 19:36:00,37.4,37.2,29.94,West,270,4.0,9.0,99,0.01,,,0.69,meteohub,2013-12-30 00:36:00,
2013-12-29 19:37:00,37.4,37.2,29.94,WSW,248,4.0,9.0,99,0.01,,,0.69,meteohub,2013-12-30 00:37:00,
2013-12-29 19:39:00,37.4,37.2,29.94,West,270,3.0,9.0,99,0.01,,,0.69,meteohub,2013-12-30 00:39:00,
2013-12-29 19:40:00,37.4,37.2,29.94,South,180,4.0,9.0,99,0.01,,,0.69,meteohub,2013-12-30 00:40:00,
2013-12-29 19:41:00,37.4,37.2,29.94,West,270,4.0,9.0,99,0.01,,,0.69,meteohub,2013-12-30 00:41:00,
2013-12-29 19:42:00,37.4,37.2,29.94,West,270,5.0,9.0,99,0.01,,,0.69,meteohub,2013-12-30 00:42:00,
2013-12-29 19:45:00,37.4,37.2,29.94,WSW,248,3.0,9.0,99,0.01,,,0.69,meteohub,2013-12-30 00:45:00,
2013-12-29 19:46:00,37.4,37.2,29.94,West,270,8.0,9.0,99,0.01,,,0.69,meteohub,2013-12-30 00:46:00,
2013-12-29 19:47:00,37.4,37.2,29.94,West,270,5.0,9.0,99,0.01,,,0.69,meteohub,2013-12-30 00:47:00,
2013-12-29 19:48:00,37.4,37.2,29.94,West,270,5.0,9.0,99,0.01,,,0.69,meteohub,2013-12-30 00:48:00,
2013-12-29 19:50:00,37.6,37.4,29.94,West,270,6.0,9.0,99,0.01,,,0.69,meteohub,2013-12-30 00:50:00,
2013-12-29 19:52:00,37.6,37.4,29.94,West,270,4.0,9.0,99,0.01,,,0.69,meteohub,2013-12-30 00:52:00,
2013-12-29 19:53:00,37.6,37.4,29.94,WSW,248,4.0,9.0,99,0.01,,,0.69,meteohub,2013-12-30 00:53:00,
2013-12-29 19:55:00,37.6,37.4,29.94,WSW,248,8.0,8.0,99,0.01,,,0.69,meteohub,2013-12-30 00:55:00,
2013-12-29 19:56:00,37.8,37.6,29.94,WSW,248,5.0,8.0,99,0.01,,,0.69,meteohub,2013-12-30 00:56:00,
2013-12-29 19:57:00,37.8,37.6,29.94,West,270,4.0,8.0,99,0.01,,,0.69,meteohub,2013-12-30 00:57:00,
2013-12-29 19:58:00,37.8,37.6,29.94,West,270,5.0,8.0,99,0.01,,,0.69,meteohub,2013-12-30 00:58:00,
2013-12-29 19:59:00,37.8,37.6,29.94,NW,315,4.0,8.0,99,0.01,,,0.69,meteohub,2013-12-30 00:59:00,
2013-12-29 20:00:00,37.8,37.6,29.95,West,270,7.0,8.0,99,0.01,,,0.69,meteohub,2013-12-30 01:00:00,
2013-12-29 20:01:00,37.8,37.6,29.94,WSW,248,5.0,8.0,99,0.01,,,0.69,meteohub,2013-12-30 01:01:00,
2013-12-29 20:02:00,37.8,37.6,29.94,SSE,158,4.0,8.0,99,0.01,,,0.69,meteohub,2013-12-30 01:02:00,
2013-12-29 20:04:00,37.8,37.6,29.94,South,180,8.0,8.0,99,0.01,,,0.69,meteohub,2013-12-30 01:04:00,
2013-12-29 20:05:00,37.8,37.6,29.94,South,180,8.0,8.0,99,0.01,,,0.69,meteohub,2013-12-30 01:05:00,
2013-12-29 20:06:00,37.8,37.6,29.94,South,180,8.0,8.0,99,0.01,,,0.69,meteohub,2013-12-30 01:06:00,
2013-12-29 20:07:00,37.8,37.6,29.94,South,180,8.0,8.0,99,0.01,,,0.69,meteohub,2013-12-30 01:07:00,
2013-12-29 20:08:00,37.8,37.6,29.95,South,180,8.0,8.0,99,0.01,,,0.69,meteohub,2013-12-30 01:08:00,
2013-12-29 20:09:00,37.8,37.6,29.95,South,180,8.0,8.0,99,0.01,,,0.69,meteohub,2013-12-30 01:09:00,
2013-12-29 20:10:00,37.9,37.8,29.94,WSW,248,4.0,8.0,99,0.01,,,0.69,meteohub,2013-12-30 01:10:00,
2013-12-29 20:11:00,37.9,37.8,29.94,WSW,248,5.0,8.0,99,0.01,,,0.69,meteohub,2013-12-30 01:11:00,
2013-12-29 20:13:00,37.9,37.8,29.94,WSW,248,7.0,8.0,99,0.01,,,0.69,meteohub,2013-12-30 01:13:00,
2013-12-29 20:14:00,37.9,37.8,29.94,West,270,6.0,8.0,99,0.01,,,0.69,meteohub,2013-12-30 01:14:00,
2013-12-29 20:16:00,37.9,37.8,29.95,WSW,248,11.0,11.0,99,0.01,,,0.69,meteohub,2013-12-30 01:16:00,
2013-12-29 20:17:00,38.1,37.9,29.95,WSW,248,5.0,8.0,99,0.01,,,0.69,meteohub,2013-12-30 01:17:00,
2013-12-29 20:18:00,38.1,37.9,29.95,WSW,248,5.0,8.0,99,0.01,,,0.69,meteohub,2013-12-30 01:18:00,
2013-12-29 20:20:00,38.1,37.9,29.95,South,180,8.0,11.0,99,0.01,,,0.69,meteohub,2013-12-30 01:20:00,
2013-12-29 20:21:00,38.1,37.9,29.95,WSW,248,5.0,11.0,99,0.01,,,0.69,meteohub,2013-12-30 01:21:00,
2013-12-29 20:22:00,38.1,37.9,29.95,WSW,248,7.0,11.0,99,0.01,,,0.69,meteohub,2013-12-30 01:22:00,
2013-12-29 20:23:00,38.1,37.9,29.95,WSW,248,11.0,11.0,99,0.01,,,0.69,meteohub,2013-12-30 01:23:00,
2013-12-29 20:24:00,38.1,37.9,29.95,WSW,248,4.0,11.0,99,0.01,,,0.69,meteohub,2013-12-30 01:24:00,
2013-12-29 20:26:00,38.1,37.9,29.95,West,270,8.0,11.0,99,0.01,,,0.69,meteohub,2013-12-30 01:26:00,
2013-12-29 20:28:00,38.1,37.9,29.95,WSW,248,10.0,11.0,99,0.01,,,0.69,meteohub,2013-12-30 01:28:00,
2013-12-29 20:29:00,38.1,37.9,29.95,South,180,4.0,11.0,99,0.01,,,0.69,meteohub,2013-12-30 01:29:00,
2013-12-29 20:30:00,38.1,37.9,29.95,West,270,5.0,11.0,99,0.01,,,0.69,meteohub,2013-12-30 01:30:00,
2013-12-29 20:31:00,38.3,38.1,29.95,NW,315,8.0,11.0,99,0.00,,,0.69,meteohub,2013-12-30 01:31:00,
2013-12-29 20:34:00,38.3,38.1,29.95,South,180,11.0,11.0,99,0.00,,,0.69,meteohub,2013-12-30 01:34:00,
2013-12-29 20:35:00,38.1,37.9,29.95,WSW,248,4.0,11.0,99,0.00,,,0.69,meteohub,2013-12-30 01:35:00,
2013-12-29 20:36:00,38.3,38.1,29.95,SE,135,9.0,11.0,99,0.00,,,0.69,meteohub,2013-12-30 01:36:00,
2013-12-29 20:39:00,38.3,38.1,29.95,West,270,4.0,11.0,99,0.00,,,0.69,meteohub,2013-12-30 01:39:00,
2013-12-29 20:40:00,38.3,38.1,29.95,WSW,248,3.0,11.0,99,0.00,,,0.69,meteohub,2013-12-30 01:40:00,
2013-12-29 20:41:00,38.3,38.1,29.95,WSW,248,10.0,11.0,99,0.00,,,0.69,meteohub,2013-12-30 01:41:00,
2013-12-29 20:42:00,38.3,38.1,29.95,West,270,5.0,11.0,99,0.00,,,0.69,meteohub,2013-12-30 01:42:00,
2013-12-29 20:45:00,38.3,38.1,29.95,West,270,9.0,11.0,99,0.00,,,0.69,meteohub,2013-12-30 01:45:00,
2013-12-29 20:46:00,38.3,38.1,29.96,NW,315,7.0,11.0,99,0.01,,,0.70,meteohub,2013-12-30 01:46:00,
2013-12-29 20:47:00,38.5,38.3,29.96,WSW,248,12.0,12.0,99,0.01,,,0.70,meteohub,2013-12-30 01:47:00,
2013-12-29 20:50:00,38.5,38.3,29.96,West,270,9.0,11.0,99,0.01,,,0.70,meteohub,2013-12-30 01:50:00,
2013-12-29 20:51:00,38.5,38.3,29.96,WSW,248,4.0,12.0,99,0.01,,,0.70,meteohub,2013-12-30 01:51:00,
2013-12-29 20:52:00,38.5,38.3,29.96,WSW,248,4.0,12.0,99,0.01,,,0.70,meteohub,2013-12-30 01:52:00,
2013-12-29 20:54:00,38.5,38.3,29.96,West,270,12.0,12.0,99,0.01,,,0.70,meteohub,2013-12-30 01:54:00,
2013-12-29 20:56:00,38.7,38.5,29.96,WSW,248,6.0,12.0,99,0.01,,,0.70,meteohub,2013-12-30 01:56:00,
2013-12-29 20:57:00,38.7,38.5,29.96,WSW,248,8.0,12.0,99,0.01,,,0.70,meteohub,2013-12-30 01:57:00,
2013-12-29 20:59:00,38.7,38.5,29.96,West,270,10.0,12.0,99,0.01,,,0.70,meteohub,2013-12-30 01:59:00,
2013-12-29 21:01:00,38.7,38.5,29.96,WSW,248,7.0,13.0,99,0.01,,,0.70,meteohub,2013-12-30 02:01:00,
2013-12-29 21:02:00,38.7,38.5,29.96,WSW,248,7.0,13.0,99,0.01,,,0.70,meteohub,2013-12-30 02:02:00,
2013-12-29 21:05:00,38.7,38.5,29.96,WSW,248,7.0,13.0,99,0.01,,,0.70,meteohub,2013-12-30 02:05:00,
2013-12-29 21:06:00,38.7,38.5,29.96,WSW,248,7.0,13.0,99,0.01,,,0.70,meteohub,2013-12-30 02:06:00,
2013-12-29 21:07:00,38.7,38.5,29.96,West,270,8.0,13.0,99,0.01,,,0.70,meteohub,2013-12-30 02:07:00,
2013-12-29 21:08:00,38.7,38.5,29.96,West,270,8.0,13.0,99,0.01,,,0.70,meteohub,2013-12-30 02:08:00,
2013-12-29 21:09:00,38.7,38.5,29.96,WSW,248,9.0,13.0,99,0.01,,,0.70,meteohub,2013-12-30 02:09:00,
2013-12-29 21:10:00,38.8,38.7,29.96,South,180,8.0,13.0,99,0.01,,,0.70,meteohub,2013-12-30 02:10:00,
2013-12-29 21:12:00,38.7,38.5,29.96,West,270,8.0,13.0,99,0.01,,,0.70,meteohub,2013-12-30 02:12:00,
2013-12-29 21:13:00,38.7,38.5,29.96,West,270,8.0,13.0,99,0.01,,,0.70,meteohub,2013-12-30 02:13:00,
2013-12-29 21:14:00,38.8,38.7,29.96,East,90,5.0,13.0,99,0.01,,,0.70,meteohub,2013-12-30 02:14:00,
2013-12-29 21:16:00,38.7,38.5,29.96,West,270,4.0,17.0,99,0.01,,,0.70,meteohub,2013-12-30 02:16:00,
2013-12-29 21:18:00,38.7,38.5,29.96,NW,315,7.0,17.0,99,0.01,,,0.70,meteohub,2013-12-30 02:18:00,
2013-12-29 21:19:00,38.7,38.5,29.96,WSW,248,8.0,17.0,99,0.01,,,0.70,meteohub,2013-12-30 02:19:00,
2013-12-29 21:20:00,38.7,38.5,29.96,WSW,248,8.0,17.0,99,0.01,,,0.70,meteohub,2013-12-30 02:20:00,
2013-12-29 21:21:00,38.8,38.7,29.96,South,180,7.0,17.0,99,0.01,,,0.70,meteohub,2013-12-30 02:21:00,
2013-12-29 21:23:00,38.8,38.7,29.96,NW,315,8.0,17.0,99,0.01,,,0.70,meteohub,2013-12-30 02:23:00,
2013-12-29 21:25:00,38.8,38.7,29.96,NW,315,8.0,17.0,99,0.01,,,0.70,meteohub,2013-12-30 02:25:00,
2013-12-29 21:26:00,38.8,38.7,29.96,WNW,293,11.0,17.0,99,0.01,,,0.70,meteohub,2013-12-30 02:26:00,
2013-12-29 21:27:00,38.8,38.7,29.96,West,270,7.0,17.0,99,0.01,,,0.70,meteohub,2013-12-30 02:27:00,
2013-12-29 21:28:00,38.8,38.7,29.96,NW,315,4.0,17.0,99,0.01,,,0.70,meteohub,2013-12-30 02:28:00,
2013-12-29 21:29:00,38.8,38.7,29.96,NW,315,7.0,17.0,99,0.01,,,0.70,meteohub,2013-12-30 02:29:00,
2013-12-29 21:31:00,38.8,38.7,29.96,WSW,248,4.0,11.0,99,0.01,,,0.70,meteohub,2013-12-30 02:31:00,
2013-12-29 21:32:00,38.8,38.7,29.96,WSW,248,4.0,11.0,99,0.01,,,0.70,meteohub,2013-12-30 02:32:00,
2013-12-29 21:33:00,38.8,38.7,29.96,West,270,17.0,17.0,99,0.01,,,0.70,meteohub,2013-12-30 02:33:00,
2013-12-29 21:34:00,38.8,38.7,29.96,West,270,8.0,11.0,99,0.01,,,0.70,meteohub,2013-12-30 02:34:00,
2013-12-29 21:37:00,38.8,38.7,29.96,West,270,8.0,17.0,99,0.01,,,0.70,meteohub,2013-12-30 02:37:00,
2013-12-29 21:38:00,38.8,38.7,29.97,North,0,9.0,17.0,99,0.01,,,0.70,meteohub,2013-12-30 02:38:00,
2013-12-29 21:39:00,38.8,38.7,29.97,West,270,9.0,17.0,99,0.01,,,0.70,meteohub,2013-12-30 02:39:00,
2013-12-29 21:40:00,38.8,38.7,29.97,West,270,5.0,17.0,99,0.01,,,0.70,meteohub,2013-12-30 02:40:00,
2013-12-29 21:42:00,38.8,38.7,29.96,WSW,248,7.0,17.0,99,0.01,,,0.70,meteohub,2013-12-30 02:42:00,
2013-12-29 21:43:00,38.8,38.7,29.96,WSW,248,7.0,17.0,99,0.01,,,0.70,meteohub,2013-12-30 02:43:00,
2013-12-29 21:44:00,38.8,38.7,29.96,NW,315,17.0,17.0,99,0.01,,,0.70,meteohub,2013-12-30 02:44:00,
2013-12-29 21:45:00,38.8,38.7,29.97,West,270,11.0,17.0,99,0.00,,,0.70,meteohub,2013-12-30 02:45:00,
2013-12-29 21:46:00,38.8,38.7,29.96,WSW,248,11.0,17.0,99,0.00,,,0.70,meteohub,2013-12-30 02:46:00,
2013-12-29 21:49:00,38.7,38.5,29.97,West,270,7.0,17.0,99,0.00,,,0.70,meteohub,2013-12-30 02:49:00,
2013-12-29 21:50:00,38.7,38.5,29.97,South,180,7.0,17.0,99,0.00,,,0.70,meteohub,2013-12-30 02:50:00,
2013-12-29 21:51:00,38.7,38.5,29.97,SE,135,9.0,17.0,99,0.00,,,0.70,meteohub,2013-12-30 02:51:00,
2013-12-29 21:52:00,38.7,38.5,29.97,South,180,11.0,17.0,99,0.00,,,0.70,meteohub,2013-12-30 02:52:00,
2013-12-29 21:54:00,38.7,38.5,29.97,WSW,248,5.0,17.0,99,0.00,,,0.70,meteohub,2013-12-30 02:54:00,
2013-12-29 21:55:00,38.7,38.5,29.97,WSW,248,5.0,17.0,99,0.00,,,0.70,meteohub,2013-12-30 02:55:00,
2013-12-29 21:56:00,38.5,38.3,29.97,West,270,4.0,17.0,99,0.00,,,0.70,meteohub,2013-12-30 02:56:00,
2013-12-29 21:57:00,38.5,38.3,29.97,WSW,248,4.0,17.0,99,0.00,,,0.70,meteohub,2013-12-30 02:57:00,
2013-12-29 21:58:00,38.5,38.3,29.97,WSW,248,10.0,17.0,99,0.00,,,0.70,meteohub,2013-12-30 02:58:00,
2013-12-29 21:59:00,38.5,38.3,29.97,WSW,248,6.0,17.0,99,0.00,,,0.70,meteohub,2013-12-30 02:59:00,
2013-12-29 22:00:00,38.5,38.3,29.97,West,270,8.0,17.0,99,0.00,,,0.70,meteohub,2013-12-30 03:00:00,
2013-12-29 22:02:00,38.5,38.3,29.97,West,270,8.0,15.0,99,0.00,,,0.70,meteohub,2013-12-30 03:02:00,
2013-12-29 22:04:00,38.5,38.3,29.97,West,270,8.0,15.0,99,0.00,,,0.70,meteohub,2013-12-30 03:04:00,
2013-12-29 22:05:00,38.5,38.3,29.96,West,270,8.0,14.0,99,0.00,,,0.70,meteohub,2013-12-30 03:05:00,
2013-12-29 22:07:00,38.5,38.3,29.96,West,270,8.0,14.0,99,0.00,,,0.70,meteohub,2013-12-30 03:07:00,
2013-12-29 22:08:00,38.3,38.1,29.96,West,270,7.0,14.0,99,0.00,,,0.70,meteohub,2013-12-30 03:08:00,
2013-12-29 22:09:00,38.3,38.1,29.96,West,270,7.0,14.0,99,0.00,,,0.70,meteohub,2013-12-30 03:09:00,
2013-12-29 22:11:00,38.3,38.1,29.97,WSW,248,4.0,14.0,99,0.01,,,0.71,meteohub,2013-12-30 03:11:00,
2013-12-29 22:12:00,38.3,38.1,29.96,WSW,248,12.0,14.0,99,0.01,,,0.71,meteohub,2013-12-30 03:12:00,
2013-12-29 22:14:00,38.3,38.1,29.97,West,270,14.0,14.0,99,0.01,,,0.71,meteohub,2013-12-30 03:14:00,
2013-12-29 22:15:00,38.3,38.1,29.96,WNW,293,15.0,15.0,99,0.01,,,0.71,meteohub,2013-12-30 03:15:00,
2013-12-29 22:16:00,38.3,38.1,29.96,West,270,8.0,12.0,99,0.01,,,0.71,meteohub,2013-12-30 03:16:00,
2013-12-29 22:17:00,38.1,37.9,29.96,NW,315,8.0,12.0,99,0.01,,,0.71,meteohub,2013-12-30 03:17:00,
2013-12-29 22:19:00,38.1,37.9,29.96,West,270,11.0,12.0,99,0.01,,,0.71,meteohub,2013-12-30 03:19:00,
2013-12-29 22:20:00,38.1,37.9,29.96,South,180,10.0,15.0,99,0.01,,,0.71,meteohub,2013-12-30 03:20:00,
2013-12-29 22:22:00,38.1,37.9,29.96,North,0,13.0,15.0,99,0.01,,,0.71,meteohub,2013-12-30 03:22:00,
2013-12-29 22:23:00,38.1,37.9,29.97,West,270,6.0,15.0,99,0.01,,,0.71,meteohub,2013-12-30 03:23:00,
2013-12-29 22:25:00,38.1,37.9,29.96,NW,315,11.0,15.0,99,0.01,,,0.71,meteohub,2013-12-30 03:25:00,
2013-12-29 22:28:00,38.1,37.9,29.96,NW,315,4.0,17.0,99,0.01,,,0.71,meteohub,2013-12-30 03:28:00,
2013-12-29 22:29:00,38.1,37.9,29.97,North,0,6.0,17.0,99,0.01,,,0.71,meteohub,2013-12-30 03:29:00,
2013-12-29 22:30:00,38.1,37.9,29.96,NW,315,2.0,17.0,99,0.01,,,0.71,meteohub,2013-12-30 03:30:00,
2013-12-29 22:31:00,38.1,37.9,29.97,NW,315,2.0,17.0,99,0.01,,,0.71,meteohub,2013-12-30 03:31:00,
2013-12-29 22:33:00,37.9,37.8,29.97,North,0,7.0,17.0,99,0.01,,,0.71,meteohub,2013-12-30 03:33:00,
2013-12-29 22:35:00,37.9,37.8,29.97,NW,315,15.0,17.0,99,0.01,,,0.71,meteohub,2013-12-30 03:35:00,
2013-12-29 22:36:00,37.8,37.6,29.98,West,270,20.0,20.0,99,0.02,,,0.72,meteohub,2013-12-30 03:36:00,
2013-12-29 22:39:00,37.6,37.4,29.98,NW,315,10.0,17.0,99,0.02,,,0.72,meteohub,2013-12-30 03:39:00,
2013-12-29 22:40:00,37.6,37.4,29.98,NW,315,8.0,17.0,99,0.02,,,0.72,meteohub,2013-12-30 03:40:00,
2013-12-29 22:41:00,37.4,37.2,29.97,West,270,6.0,20.0,99,0.02,,,0.72,meteohub,2013-12-30 03:41:00,
2013-12-29 22:42:00,37.4,37.2,29.98,North,0,8.0,20.0,99,0.02,,,0.72,meteohub,2013-12-30 03:42:00,
2013-12-29 22:43:00,37.4,37.2,29.98,NW,315,4.0,20.0,99,0.02,,,0.72,meteohub,2013-12-30 03:43:00,
2013-12-29 22:46:00,37.2,37.0,29.98,NW,315,5.0,20.0,99,0.02,,,0.72,meteohub,2013-12-30 03:46:00,
2013-12-29 22:47:00,37.2,37.0,29.98,NW,315,5.0,20.0,99,0.02,,,0.72,meteohub,2013-12-30 03:47:00,
2013-12-29 22:48:00,37.2,37.0,29.98,NW,315,8.0,20.0,99,0.02,,,0.72,meteohub,2013-12-30 03:48:00,
2013-12-29 22:51:00,37.0,36.9,29.98,East,90,9.0,20.0,99,0.04,,,0.73,meteohub,2013-12-30 03:51:00,
2013-12-29 22:52:00,37.0,36.9,29.98,NW,315,7.0,20.0,99,0.04,,,0.73,meteohub,2013-12-30 03:52:00,
2013-12-29 22:53:00,36.9,36.7,29.98,North,0,13.0,20.0,99,0.04,,,0.73,meteohub,2013-12-30 03:53:00,
2013-12-29 22:54:00,36.9,36.7,29.98,South,180,6.0,20.0,99,0.04,,,0.73,meteohub,2013-12-30 03:54:00,
2013-12-29 22:56:00,36.7,36.5,29.98,West,270,12.0,17.0,99,0.04,,,0.73,meteohub,2013-12-30 03:56:00,
2013-12-29 22:57:00,36.7,36.5,29.98,NW,315,3.0,17.0,99,0.04,,,0.73,meteohub,2013-12-30 03:57:00,
2013-12-29 22:58:00,36.7,36.5,29.98,West,270,2.0,17.0,99,0.04,,,0.73,meteohub,2013-12-30 03:58:00,
2013-12-29 22:59:00,36.7,36.5,29.98,WSW,248,6.0,17.0,99,0.04,,,0.73,meteohub,2013-12-30 03:59:00,
2013-12-29 23:00:00,36.5,36.3,29.98,West,270,4.0,17.0,99,0.04,,,0.73,meteohub,2013-12-30 04:00:00,
2013-12-29 23:02:00,36.5,36.3,29.97,NW,315,12.0,17.0,99,0.04,,,0.73,meteohub,2013-12-30 04:02:00,
2013-12-29 23:03:00,36.5,36.3,29.97,WSW,248,9.0,17.0,99,0.04,,,0.73,meteohub,2013-12-30 04:03:00,
2013-12-29 23:04:00,36.3,36.1,29.98,NW,315,9.0,17.0,99,0.04,,,0.73,meteohub,2013-12-30 04:04:00,
2013-12-29 23:05:00,36.3,36.1,29.98,WSW,248,6.0,17.0,99,0.04,,,0.73,meteohub,2013-12-30 04:05:00,
2013-12-29 23:08:00,36.3,36.1,29.98,NW,315,5.0,17.0,99,0.04,,,0.73,meteohub,2013-12-30 04:08:00,
2013-12-29 23:09:00,36.3,36.1,29.98,West,270,3.0,17.0,99,0.04,,,0.73,meteohub,2013-12-30 04:09:00,
2013-12-29 23:10:00,36.3,36.1,29.98,South,180,5.0,17.0,99,0.04,,,0.73,meteohub,2013-12-30 04:10:00,
2013-12-29 23:11:00,36.3,36.1,29.98,West,270,5.0,12.0,99,0.02,,,0.73,meteohub,2013-12-30 04:11:00,
2013-12-29 23:12:00,36.3,36.1,29.98,WSW,248,6.0,12.0,99,0.02,,,0.73,meteohub,2013-12-30 04:12:00,
2013-12-29 23:14:00,36.3,36.1,29.98,West,270,8.0,12.0,99,0.02,,,0.73,meteohub,2013-12-30 04:14:00,
2013-12-29 23:15:00,36.3,36.1,29.98,West,270,8.0,12.0,99,0.02,,,0.73,meteohub,2013-12-30 04:15:00,
2013-12-29 23:16:00,36.3,36.1,29.98,West,270,8.0,17.0,99,0.02,,,0.73,meteohub,2013-12-30 04:16:00,
2013-12-29 23:17:00,36.3,36.1,29.98,NW,315,4.0,17.0,99,0.02,,,0.73,meteohub,2013-12-30 04:17:00,
2013-12-29 23:19:00,36.1,36.0,29.98,WNW,293,4.0,17.0,99,0.02,,,0.73,meteohub,2013-12-30 04:19:00,
2013-12-29 23:21:00,36.1,36.0,29.99,SSW,203,4.0,17.0,99,0.02,,,0.73,meteohub,2013-12-30 04:21:00,
2013-12-29 23:22:00,36.1,36.0,29.98,WSW,248,12.0,17.0,99,0.02,,,0.73,meteohub,2013-12-30 04:22:00,
2013-12-29 23:23:00,36.1,36.0,29.98,WSW,248,10.0,17.0,99,0.02,,,0.73,meteohub,2013-12-30 04:23:00,
2013-12-29 23:24:00,36.1,36.0,29.98,West,270,4.0,17.0,99,0.02,,,0.73,meteohub,2013-12-30 04:24:00,
2013-12-29 23:26:00,36.1,36.0,29.98,West,270,3.0,17.0,99,0.02,,,0.73,meteohub,2013-12-30 04:26:00,
2013-12-29 23:27:00,36.1,36.0,29.98,WSW,248,6.0,17.0,99,0.02,,,0.73,meteohub,2013-12-30 04:27:00,
2013-12-29 23:28:00,36.3,36.1,29.98,West,270,7.0,17.0,99,0.02,,,0.73,meteohub,2013-12-30 04:28:00,
2013-12-29 23:29:00,36.3,36.1,29.98,West,270,7.0,17.0,99,0.02,,,0.73,meteohub,2013-12-30 04:29:00,
2013-12-29 23:30:00,36.1,36.0,29.98,NW,315,5.0,17.0,99,0.02,,,0.73,meteohub,2013-12-30 04:30:00,
2013-12-29 23:31:00,36.1,36.0,29.98,NW,315,5.0,12.0,99,0.04,,,0.74,meteohub,2013-12-30 04:31:00,
2013-12-29 23:32:00,36.3,36.1,29.98,WSW,248,4.0,12.0,99,0.04,,,0.74,meteohub,2013-12-30 04:32:00,
2013-12-29 23:34:00,36.3,36.1,29.98,WSW,248,7.0,12.0,99,0.04,,,0.74,meteohub,2013-12-30 04:34:00,
2013-12-29 23:35:00,36.3,36.1,29.98,West,270,7.0,12.0,99,0.04,,,0.74,meteohub,2013-12-30 04:35:00,
2013-12-29 23:37:00,36.3,36.1,29.98,NW,315,8.0,12.0,99,0.02,,,0.74,meteohub,2013-12-30 04:37:00,
2013-12-29 23:38:00,36.3,36.1,29.98,NW,315,8.0,12.0,99,0.02,,,0.74,meteohub,2013-12-30 04:38:00,
2013-12-29 23:39:00,36.5,36.3,29.98,South,180,8.0,12.0,99,0.02,,,0.74,meteohub,2013-12-30 04:39:00,
2013-12-29 23:40:00,36.5,36.3,29.98,WSW,248,8.0,11.0,99,0.02,,,0.74,meteohub,2013-12-30 04:40:00,
2013-12-29 23:41:00,36.5,36.3,29.99,NW,315,6.0,11.0,99,0.02,,,0.74,meteohub,2013-12-30 04:41:00,
2013-12-29 23:44:00,36.5,36.3,29.99,WSW,248,5.0,11.0,99,0.02,,,0.74,meteohub,2013-12-30 04:44:00,
2013-12-29 23:46:00,36.5,36.3,29.98,West,270,12.0,13.0,99,0.02,,,0.74,meteohub,2013-12-30 04:46:00,
2013-12-29 23:47:00,36.5,36.3,29.99,West,270,11.0,13.0,99,0.02,,,0.74,meteohub,2013-12-30 04:47:00,
2013-12-29 23:49:00,36.5,36.3,29.99,West,270,4.0,13.0,99,0.02,,,0.74,meteohub,2013-12-30 04:49:00,
2013-12-29 23:51:00,36.5,36.3,29.99,West,270,9.0,13.0,99,0.01,,,0.74,meteohub,2013-12-30 04:51:00,
2013-12-29 23:52:00,36.5,36.3,29.99,South,180,7.0,13.0,99,0.01,,,0.74,meteohub,2013-12-30 04:52:00,
2013-12-29 23:53:00,36.5,36.3,29.99,North,0,8.0,13.0,99,0.01,,,0.74,meteohub,2013-12-30 04:53:00,
2013-12-29 23:55:00,36.5,36.3,29.99,WSW,248,8.0,13.0,99,0.01,,,0.74,meteohub,2013-12-30 04:55:00,
2013-12-29 23:56:00,36.5,36.3,29.99,WSW,248,6.0,13.0,99,0.01,,,0.74,meteohub,2013-12-30 04:56:00,
2013-12-29 23:57:00,36.5,36.3,29.99,West,270,9.0,13.0,99,0.01,,,0.74,meteohub,2013-12-30 04:57:00,
2013-12-29 23:59:00,36.5,36.3,29.99,WSW,248,11.0,13.0,99,0.01,,,0.74,meteohub,2013-12-30 04:59:00,